GFSWCAN_prec_precacc24_093.txt.gz
Total_Precipitation_Accumulation
0.14 0.16 0.13 0.12 0.11 0.11 0.10 0.10 0.09 0.10 0.12 0.12 0.17 0.24 0.43 0.56 0.55 0.79 0.62 0.20 0.32 0.40 0.16 0.04 0.04 0.07 0.07 0.16 0.31 0.26 0.51 0.37 0.37 0.24 0.14 0.10 0.10 0.10 0.06 0.14 0.14 0.10 0.11 0.09 0.08 0.12 0.04 0.00 0.06 0.14 0.13 0.01 0.00 0.00
0.19 0.12 0.10 0.10 0.09 0.10 0.11 0.11 0.10 0.09 0.12 0.16 0.16 0.18 0.27 0.54 0.73 1.04 1.04 0.28 0.28 0.41 0.27 0.12 0.03 0.02 0.05 0.13 0.35 0.43 0.30 0.36 0.20 0.26 0.16 0.12 0.15 0.12 0.08 0.10 0.21 0.24 0.06 0.06 0.03 0.03 0.09 0.13 0.08 0.09 0.06 0.06 0.04 0.02
0.12 0.08 0.11 0.08 0.05 0.05 0.04 0.06 0.09 0.12 0.15 0.19 0.21 0.20 0.22 0.32 0.64 1.35 1.21 0.28 0.72 0.91 0.38 0.15 0.07 0.00 0.01 0.04 0.13 0.25 0.28 0.40 0.48 0.44 0.38 0.21 0.16 0.09 0.09 0.12 0.26 0.54 0.45 0.28 0.21 0.21 0.17 0.36 0.25 0.06 0.04 0.12 0.10 0.02
0.07 0.08 0.07 0.05 0.05 0.06 0.07 0.07 0.07 0.09 0.17 0.23 0.27 0.25 0.21 0.29 0.52 1.18 1.32 0.43 0.52 0.57 0.29 0.09 0.02 0.06 0.03 0.02 0.04 0.06 0.10 0.17 0.27 0.44 0.34 0.22 0.13 0.07 0.08 0.13 0.24 0.27 0.53 0.56 0.52 0.44 0.36 0.54 0.51 0.34 0.22 0.05 0.08 0.06
0.06 0.06 0.03 0.04 0.05 0.04 0.04 0.05 0.04 0.05 0.10 0.24 0.33 0.35 0.29 0.35 0.73 1.23 0.88 0.32 0.19 0.20 0.25 0.05 0.02 0.00 0.04 0.06 0.06 0.08 0.13 0.18 0.28 0.32 0.29 0.19 0.13 0.15 0.12 0.28 0.28 0.15 0.37 0.68 1.01 0.71 0.54 0.55 0.24 0.14 0.15 0.07 0.01 0.02
0.04 0.04 0.02 0.04 0.04 0.03 0.03 0.02 0.05 0.05 0.08 0.25 0.38 0.43 0.38 0.62 1.13 1.94 2.38 1.36 0.26 0.32 0.42 0.24 0.07 0.03 0.01 0.03 0.07 0.07 0.15 0.31 0.38 0.33 0.20 0.17 0.18 0.53 0.48 0.45 0.24 0.07 0.10 0.22 0.42 0.62 0.50 0.31 0.16 0.05 0.02 0.01 0.00 0.00
0.03 0.04 0.04 0.03 0.04 0.05 0.04 0.04 0.06 0.10 0.16 0.38 0.52 0.53 0.59 0.80 0.75 0.68 0.67 0.51 0.23 0.42 0.56 0.31 0.16 0.10 0.04 0.08 0.20 0.30 0.38 0.47 0.34 0.33 0.15 0.12 0.20 0.39 0.61 0.60 0.35 0.18 0.16 0.23 0.21 0.17 0.08 0.08 0.06 0.02 0.01 0.01 0.02 0.01
0.02 0.03 0.05 0.05 0.08 0.10 0.07 0.07 0.10 0.17 0.36 0.55 0.67 0.64 0.88 0.93 0.77 0.52 0.11 0.01 0.10 0.56 0.34 0.31 0.51 0.45 0.16 0.16 0.29 0.37 0.59 0.59 0.58 0.43 0.17 0.10 0.25 0.36 0.46 0.12 0.03 0.09 0.10 0.11 0.13 0.08 0.04 0.02 0.01 0.02 0.01 0.02 0.03 0.04
0.03 0.03 0.05 0.11 0.15 0.15 0.15 0.18 0.28 0.52 0.79 0.97 1.09 1.59 2.15 1.52 1.17 0.56 0.18 0.11 0.16 0.30 0.22 0.23 0.50 0.82 0.34 0.27 0.21 0.41 0.36 0.60 0.50 0.29 0.16 0.26 0.26 0.38 0.26 0.04 0.02 0.01 0.01 0.01 0.01 0.02 0.03 0.02 0.02 0.02 0.02 0.02 0.02 0.02
0.03 0.03 0.05 0.09 0.19 0.29 0.44 0.65 0.81 0.92 1.11 1.13 1.35 1.82 2.13 0.98 0.30 0.53 0.88 0.81 0.75 0.41 0.18 0.21 0.28 0.61 0.54 0.33 0.21 0.36 0.30 0.27 0.34 0.20 0.19 0.29 0.22 0.16 0.05 0.01 0.00 0.01 0.00 0.01 0.01 0.01 0.01 0.04 0.05 0.05 0.06 0.07 0.08 0.08
0.10 0.11 0.09 0.12 0.15 0.22 0.32 0.38 0.43 0.46 0.42 0.62 0.96 1.13 0.99 0.44 0.30 0.47 0.76 0.51 0.36 0.20 0.14 0.25 0.22 0.28 0.54 0.31 0.16 0.22 0.26 0.24 0.18 0.17 0.31 0.33 0.15 0.12 0.03 0.00 0.00 0.00 0.00 0.00 0.01 0.02 0.03 0.04 0.05 0.07 0.06 0.06 0.07 0.09
0.22 0.17 0.16 0.19 0.21 0.21 0.21 0.21 0.22 0.26 0.26 0.15 0.43 0.81 0.73 0.49 0.43 0.31 0.20 0.17 0.12 0.15 0.11 0.15 0.21 0.21 0.55 0.40 0.27 0.22 0.24 0.20 0.24 0.31 0.34 0.19 0.16 0.04 0.00 0.01 0.00 0.01 0.01 0.01 0.02 0.02 0.03 0.04 0.05 0.05 0.06 0.09 0.12 0.14
0.34 0.22 0.14 0.14 0.16 0.14 0.14 0.15 0.10 0.02 0.02 0.01 0.04 0.19 0.20 0.19 0.16 0.10 0.08 0.11 0.08 0.07 0.06 0.08 0.16 0.20 0.28 0.27 0.34 0.11 0.17 0.29 0.21 0.29 0.23 0.11 0.08 0.02 0.01 0.01 0.01 0.02 0.02 0.02 0.03 0.03 0.04 0.05 0.05 0.06 0.07 0.10 0.10 0.13
0.19 0.08 0.05 0.06 0.07 0.08 0.08 0.03 0.00 0.00 0.00 0.01 0.01 0.02 0.02 0.01 0.04 0.08 0.07 0.05 0.06 0.05 0.04 0.05 0.04 0.09 0.05 0.07 0.17 0.06 0.09 0.12 0.27 0.14 0.08 0.11 0.07 0.07 0.05 0.05 0.04 0.06 0.05 0.06 0.07 0.07 0.07 0.07 0.09 0.11 0.12 0.14 0.11 0.15
0.10 0.05 0.05 0.05 0.04 0.03 0.02 0.01 0.00 0.00 0.00 0.00 0.00 0.01 0.03 0.09 0.11 0.12 0.07 0.07 0.07 0.06 0.06 0.06 0.03 0.06 0.04 0.03 0.02 0.03 0.05 0.05 0.05 0.08 0.10 0.11 0.10 0.08 0.10 0.10 0.09 0.09 0.09 0.10 0.11 0.10 0.12 0.12 0.10 0.14 0.17 0.16 0.14 0.16
0.07 0.08 0.12 0.07 0.01 0.00 0.01 0.00 0.00 0.00 0.00 0.00 0.03 0.08 0.09 0.09 0.12 0.09 0.09 0.10 0.11 0.10 0.08 0.08 0.04 0.05 0.07 0.03 0.02 0.02 0.04 0.04 0.08 0.08 0.09 0.07 0.07 0.08 0.10 0.11 0.13 0.14 0.13 0.13 0.14 0.14 0.14 0.15 0.15 0.16 0.17 0.17 0.19 0.17
0.11 0.08 0.12 0.04 0.00 0.00 0.00 0.00 0.00 0.00 0.00 0.01 0.04 0.06 0.06 0.06 0.09 0.10 0.08 0.07 0.06 0.07 0.09 0.10 0.09 0.08 0.07 0.04 0.05 0.05 0.08 0.09 0.10 0.13 0.13 0.13 0.13 0.13 0.13 0.13 0.14 0.15 0.14 0.16 0.16 0.17 0.17 0.18 0.16 0.13 0.14 0.21 0.18 0.18
0.09 0.04 0.02 0.00 0.00 0.00 0.00 0.00 0.00 0.00 0.02 0.04 0.05 0.07 0.03 0.05 0.06 0.05 0.01 0.00 0.01 0.01 0.04 0.06 0.06 0.07 0.09 0.10 0.14 0.15 0.16 0.16 0.13 0.12 0.12 0.11 0.11 0.13 0.12 0.13 0.14 0.14 0.14 0.16 0.16 0.16 0.17 0.18 0.15 0.16 0.15 0.16 0.13 0.10
0.04 0.01 0.00 0.00 0.00 0.00 0.00 0.00 0.00 0.01 0.03 0.04 0.04 0.03 0.01 0.01 0.01 0.01 0.00 0.00 0.00 0.00 0.00 0.00 0.01 0.04 0.08 0.07 0.06 0.07 0.06 0.05 0.05 0.06 0.06 0.07 0.07 0.08 0.10 0.11 0.11 0.12 0.13 0.14 0.13 0.13 0.15 0.15 0.13 0.11 0.09 0.06 0.03 0.02
0.01 0.00 0.00 0.00 0.00 0.00 0.00 0.00 0.00 0.00 0.01 0.02 0.02 0.01 0.01 0.01 0.01 0.00 0.00 0.00 0.00 0.00 0.01 0.02 0.08 0.11 0.08 0.08 0.03 0.03 0.03 0.02 0.02 0.03 0.05 0.06 0.06 0.06 0.10 0.10 0.09 0.09 0.08 0.09 0.10 0.11 0.08 0.05 0.03 0.02 0.02 0.02 0.01 0.01
0.00 0.00 0.00 0.00 0.00 0.00 0.00 0.00 0.00 0.00 0.00 0.00 0.00 0.00 0.00 0.00 0.00 0.00 0.00 0.00 0.00 0.01 0.05 0.08 0.09 0.12 0.07 0.05 0.03 0.02 0.04 0.04 0.05 0.03 0.02 0.05 0.05 0.04 0.05 0.06 0.08 0.10 0.09 0.09 0.05 0.04 0.02 0.01 0.00 0.00 0.01 0.01 0.01 0.01
0.00 0.00 0.00 0.00 0.00 0.00 0.00 0.00 0.00 0.00 0.00 0.00 0.01 0.01 0.01 0.01 0.00 0.00 0.00 0.01 0.05 0.09 0.07 0.06 0.05 0.04 0.01 0.02 0.03 0.02 0.02 0.01 0.01 0.01 0.01 0.02 0.04 0.03 0.03 0.04 0.03 0.03 0.02 0.02 0.00 0.00 0.00 0.00 0.00 0.00 0.01 0.01 0.01 0.01
0.00 0.00 0.00 0.00 0.00 0.00 0.02 0.02 0.01 0.01 0.00 0.00 0.00 0.00 0.00 0.00 0.00 0.00 0.00 0.02 0.08 0.09 0.03 0.02 0.03 0.01 0.01 0.02 0.01 0.01 0.01 0.00 0.01 0.01 0.01 0.01 0.00 0.00 0.00 0.00 0.00 0.00 0.00 0.00 0.00 0.00 0.00 0.00 0.00 0.00 0.00 0.00 0.00 0.00
0.00 0.00 0.00 0.00 0.00 0.01 0.00 0.00 0.00 0.00 0.00 0.00 0.00 0.00 0.00 0.00 0.00 0.00 0.01 0.03 0.05 0.04 0.01 0.01 0.00 0.00 0.00 0.00 0.00 0.00 0.00 0.00 0.00 0.00 0.00 0.00 0.00 0.00 0.00 0.00 0.00 0.00 0.00 0.00 0.00 0.00 0.00 0.00 0.00 0.00 0.00 0.00 0.01 0.01
0.00 0.00 0.00 0.00 0.00 0.00 0.00 0.00 0.00 0.00 0.00 0.00 0.00 0.00 0.00 0.00 0.00 0.00 0.00 0.02 0.03 0.02 0.01 0.00 0.00 0.00 0.00 0.00 0.00 0.00 0.00 0.00 0.00 0.00 0.00 0.00 0.00 0.00 0.00 0.00 0.00 0.00 0.00 0.01 0.01 0.01 0.00 0.00 0.00 0.00 0.00 0.00 0.00 0.00
0.00 0.00 0.00 0.00 0.00 0.00 0.00 0.00 0.00 0.00 0.00 0.00 0.00 0.00 0.00 0.00 0.00 0.01 0.00 0.01 0.02 0.01 0.01 0.01 0.01 0.00 0.00 0.00 0.00 0.00 0.00 0.00 0.00 0.00 0.00 0.00 0.00 0.00 0.00 0.00 0.01 0.01 0.00 0.00 0.00 0.01 0.00 0.00 0.00 0.00 0.00 0.00 0.00 0.00
0.00 0.00 0.00 0.00 0.00 0.00 0.00 0.00 0.00 0.00 0.00 0.00 0.00 0.00 0.00 0.00 0.00 0.04 0.05 0.01 0.00 0.01 0.00 0.00 0.00 0.00 0.00 0.00 0.00 0.00 0.00 0.00 0.00 0.00 0.00 0.00 0.00 0.00 0.00 0.00 0.01 0.01 0.00 0.00 0.00 0.00 0.01 0.00 0.00 0.00 0.00 0.00 0.00 0.00
0.00 0.00 0.00 0.00 0.00 0.00 0.00 0.00 0.00 0.00 0.01 0.00 0.00 0.00 0.00 0.00 0.04 0.08 0.06 0.04 0.00 0.00 0.00 0.00 0.00 0.00 0.00 0.00 0.00 0.00 0.00 0.00 0.00 0.00 0.00 0.00 0.00 0.00 0.00 0.00 0.00 0.00 0.00 0.00 0.00 0.00 0.00 0.00 0.00 0.00 0.00 0.00 0.00 0.01
0.00 0.00 0.00 0.00 0.00 0.00 0.01 0.01 0.01 0.01 0.01 0.00 0.00 0.01 0.02 0.06 0.10 0.07 0.05 0.01 0.00 0.00 0.00 0.00 0.00 0.00 0.00 0.00 0.00 0.00 0.00 0.00 0.00 0.00 0.00 0.01 0.02 0.01 0.00 0.00 0.00 0.00 0.01 0.01 0.01 0.01 0.01 0.00 0.00 0.00 0.00 0.00 0.01 0.01
0.00 0.00 0.00 0.00 0.01 0.02 0.05 0.04 0.03 0.01 0.00 0.00 0.01 0.03 0.05 0.16 0.21 0.06 0.02 0.01 0.01 0.00 0.00 0.00 0.00 0.00 0.00 0.00 0.00 0.00 0.00 0.00 0.00 0.00 0.01 0.01 0.01 0.01 0.01 0.01 0.01 0.01 0.01 0.01 0.01 0.01 0.01 0.01 0.01 0.01 0.01 0.01 0.01 0.01
0.00 0.00 0.00 0.00 0.02 0.05 0.05 0.03 0.02 0.01 0.01 0.00 0.00 0.01 0.05 0.12 0.13 0.13 0.07 0.02 0.01 0.00 0.00 0.01 0.01 0.00 0.00 0.00 0.00 0.00 0.01 0.00 0.00 0.00 0.00 0.00 0.00 0.01 0.00 0.00 0.00 0.01 0.00 0.00 0.00 0.00 0.00 0.00 0.00 0.00 0.00 0.00 0.00 0.00
0.00 0.00 0.00 0.01 0.03 0.03 0.08 0.03 0.01 0.02 0.01 0.01 0.01 0.01 0.01 0.00 0.02 0.05 0.07 0.04 0.02 0.01 0.00 0.00 0.01 0.01 0.00 0.00 0.00 0.00 0.00 0.00 0.00 0.00 0.00 0.00 0.00 0.01 0.01 0.01 0.01 0.01 0.00 0.00 0.00 0.01 0.00 0.00 0.00 0.00 0.00 0.00 0.00 0.00
0.00 0.00 0.00 0.00 0.01 0.01 0.02 0.02 0.00 0.01 0.01 0.02 0.03 0.04 0.02 0.00 0.02 0.03 0.04 0.05 0.07 0.02 0.02 0.02 0.01 0.00 0.00 0.00 0.00 0.00 0.00 0.00 0.00 0.00 0.00 0.00 0.00 0.00 0.00 0.00 0.00 0.00 0.00 0.00 0.00 0.00 0.00 0.00 0.00 0.00 0.00 0.00 0.00 0.00

GFSWCAN_prec_precacc24_096.txt.gz
Total_Precipitation_Accumulation
0.08 0.10 0.10 0.09 0.09 0.09 0.09 0.09 0.08 0.08 0.10 0.12 0.17 0.24 0.40 0.50 0.49 0.59 0.42 0.15 0.22 0.28 0.08 0.03 0.04 0.07 0.07 0.16 0.31 0.26 0.49 0.36 0.37 0.24 0.14 0.09 0.10 0.10 0.06 0.14 0.14 0.10 0.10 0.08 0.07 0.11 0.04 0.00 0.05 0.14 0.12 0.01 0.00 0.01
0.15 0.11 0.08 0.09 0.08 0.08 0.07 0.06 0.06 0.07 0.09 0.13 0.16 0.18 0.27 0.52 0.71 0.94 0.88 0.24 0.20 0.28 0.19 0.08 0.03 0.02 0.05 0.13 0.35 0.43 0.30 0.37 0.24 0.30 0.20 0.14 0.15 0.12 0.08 0.10 0.21 0.25 0.06 0.08 0.03 0.03 0.09 0.13 0.08 0.08 0.02 0.01 0.01 0.02
0.12 0.07 0.09 0.07 0.05 0.04 0.04 0.04 0.05 0.07 0.10 0.13 0.17 0.20 0.23 0.34 0.67 1.36 1.14 0.24 0.70 0.79 0.32 0.13 0.06 0.00 0.01 0.04 0.13 0.25 0.28 0.41 0.50 0.47 0.47 0.31 0.16 0.09 0.10 0.12 0.27 0.55 0.46 0.36 0.37 0.31 0.20 0.37 0.25 0.06 0.05 0.13 0.13 0.07
0.07 0.07 0.07 0.06 0.06 0.07 0.07 0.06 0.06 0.07 0.13 0.16 0.23 0.24 0.21 0.30 0.55 1.27 1.39 0.40 0.52 0.57 0.27 0.08 0.02 0.06 0.03 0.02 0.04 0.06 0.10 0.16 0.26 0.43 0.35 0.23 0.13 0.07 0.08 0.14 0.26 0.27 0.55 0.67 0.75 0.62 0.45 0.60 0.58 0.38 0.26 0.09 0.10 0.14
0.06 0.05 0.04 0.04 0.05 0.05 0.04 0.04 0.04 0.05 0.08 0.20 0.29 0.33 0.28 0.35 0.74 1.24 0.93 0.32 0.19 0.21 0.25 0.05 0.01 0.00 0.04 0.06 0.06 0.08 0.13 0.17 0.26 0.32 0.29 0.19 0.13 0.15 0.12 0.29 0.30 0.16 0.41 0.73 1.14 0.88 0.69 0.66 0.36 0.25 0.22 0.18 0.08 0.03
0.03 0.02 0.03 0.03 0.03 0.02 0.02 0.02 0.05 0.05 0.08 0.23 0.35 0.40 0.37 0.59 1.07 1.82 2.41 1.33 0.25 0.34 0.46 0.23 0.05 0.01 0.00 0.01 0.03 0.04 0.14 0.29 0.37 0.33 0.20 0.17 0.17 0.50 0.49 0.46 0.29 0.14 0.14 0.26 0.51 0.81 0.73 0.52 0.29 0.13 0.07 0.02 0.00 0.00
0.02 0.03 0.04 0.03 0.03 0.04 0.04 0.04 0.06 0.09 0.16 0.35 0.50 0.49 0.55 0.74 0.69 0.58 0.65 0.48 0.21 0.44 0.64 0.32 0.12 0.06 0.02 0.04 0.09 0.16 0.30 0.41 0.31 0.33 0.15 0.12 0.18 0.35 0.51 0.49 0.36 0.24 0.21 0.26 0.29 0.32 0.18 0.11 0.07 0.02 0.00 0.00 0.00 0.00
0.02 0.02 0.05 0.05 0.06 0.09 0.06 0.06 0.08 0.14 0.33 0.53 0.62 0.54 0.72 0.92 0.78 0.46 0.10 0.01 0.16 0.63 0.37 0.16 0.23 0.38 0.12 0.12 0.25 0.33 0.56 0.58 0.58 0.44 0.18 0.09 0.24 0.33 0.38 0.13 0.03 0.08 0.10 0.12 0.12 0.06 0.04 0.01 0.00 0.00 0.00 0.00 0.00 0.02
0.02 0.02 0.04 0.09 0.10 0.08 0.11 0.16 0.25 0.48 0.73 0.90 0.96 1.44 2.09 1.78 1.42 0.60 0.19 0.13 0.21 0.35 0.18 0.07 0.17 0.69 0.29 0.26 0.20 0.39 0.35 0.59 0.50 0.29 0.16 0.26 0.27 0.37 0.25 0.03 0.01 0.01 0.01 0.01 0.00 0.00 0.00 0.00 0.01 0.01 0.01 0.01 0.01 0.02
0.02 0.03 0.05 0.09 0.17 0.23 0.35 0.56 0.73 0.84 1.02 1.04 1.40 2.00 2.42 1.21 0.38 0.58 0.98 0.84 0.72 0.37 0.15 0.07 0.18 0.57 0.49 0.31 0.20 0.34 0.30 0.27 0.36 0.22 0.20 0.31 0.21 0.15 0.05 0.01 0.00 0.00 0.00 0.00 0.00 0.01 0.01 0.04 0.05 0.04 0.05 0.07 0.08 0.08
0.09 0.11 0.10 0.14 0.19 0.26 0.34 0.36 0.41 0.46 0.48 0.86 1.17 1.15 1.06 0.49 0.36 0.55 0.69 0.46 0.32 0.26 0.13 0.20 0.21 0.28 0.53 0.31 0.16 0.22 0.26 0.25 0.19 0.18 0.34 0.33 0.13 0.10 0.02 0.00 0.00 0.00 0.00 0.00 0.01 0.02 0.03 0.04 0.05 0.06 0.06 0.06 0.07 0.09
0.21 0.19 0.19 0.23 0.25 0.28 0.28 0.22 0.25 0.29 0.38 0.35 0.54 0.94 0.81 0.52 0.57 0.43 0.27 0.19 0.12 0.14 0.11 0.15 0.21 0.21 0.56 0.47 0.29 0.23 0.27 0.28 0.24 0.31 0.35 0.17 0.14 0.04 0.00 0.00 0.00 0.00 0.00 0.01 0.01 0.02 0.02 0.04 0.05 0.05 0.06 0.08 0.10 0.11
0.40 0.27 0.18 0.21 0.22 0.22 0.16 0.16 0.12 0.03 0.07 0.03 0.06 0.26 0.27 0.33 0.27 0.13 0.09 0.11 0.07 0.06 0.06 0.08 0.16 0.20 0.32 0.45 0.41 0.11 0.16 0.25 0.12 0.24 0.20 0.10 0.08 0.02 0.01 0.01 0.01 0.01 0.01 0.01 0.02 0.02 0.03 0.04 0.04 0.05 0.06 0.08 0.08 0.10
0.37 0.17 0.13 0.11 0.08 0.11 0.10 0.08 0.02 0.01 0.02 0.02 0.05 0.06 0.06 0.04 0.04 0.06 0.06 0.04 0.04 0.04 0.04 0.05 0.04 0.09 0.14 0.19 0.21 0.03 0.05 0.07 0.16 0.08 0.07 0.10 0.06 0.05 0.04 0.04 0.03 0.04 0.04 0.04 0.05 0.05 0.06 0.06 0.07 0.08 0.09 0.10 0.07 0.11
0.20 0.16 0.13 0.08 0.06 0.06 0.04 0.06 0.00 0.00 0.00 0.00 0.00 0.01 0.03 0.07 0.10 0.10 0.05 0.04 0.05 0.05 0.04 0.04 0.02 0.04 0.02 0.01 0.00 0.02 0.03 0.04 0.04 0.07 0.08 0.07 0.06 0.06 0.07 0.07 0.06 0.06 0.06 0.07 0.08 0.08 0.09 0.10 0.08 0.11 0.14 0.13 0.11 0.13
0.11 0.16 0.18 0.10 0.02 0.02 0.02 0.00 0.00 0.00 0.00 0.00 0.03 0.07 0.10 0.09 0.12 0.09 0.09 0.09 0.10 0.08 0.02 0.02 0.01 0.03 0.03 0.01 0.01 0.02 0.03 0.03 0.07 0.06 0.06 0.04 0.04 0.05 0.06 0.07 0.09 0.09 0.09 0.09 0.10 0.10 0.10 0.11 0.12 0.14 0.15 0.14 0.15 0.14
0.10 0.15 0.17 0.09 0.03 0.00 0.00 0.00 0.00 0.00 0.00 0.01 0.04 0.06 0.06 0.05 0.09 0.10 0.09 0.08 0.06 0.05 0.03 0.03 0.03 0.03 0.04 0.02 0.03 0.04 0.06 0.07 0.07 0.08 0.08 0.08 0.08 0.09 0.09 0.09 0.09 0.10 0.10 0.11 0.11 0.12 0.12 0.13 0.13 0.11 0.11 0.16 0.14 0.14
0.08 0.07 0.03 0.02 0.00 0.00 0.00 0.00 0.00 0.00 0.02 0.04 0.04 0.08 0.03 0.05 0.07 0.05 0.02 0.01 0.01 0.01 0.02 0.02 0.03 0.04 0.06 0.07 0.10 0.13 0.14 0.13 0.11 0.10 0.09 0.09 0.08 0.09 0.08 0.08 0.09 0.09 0.09 0.10 0.11 0.12 0.13 0.13 0.11 0.12 0.11 0.13 0.10 0.08
0.06 0.02 0.01 0.00 0.00 0.00 0.00 0.00 0.00 0.01 0.03 0.04 0.05 0.04 0.01 0.02 0.01 0.01 0.00 0.00 0.00 0.00 0.00 0.00 0.01 0.04 0.06 0.06 0.05 0.05 0.05 0.04 0.05 0.04 0.04 0.05 0.05 0.05 0.06 0.07 0.07 0.09 0.10 0.11 0.10 0.10 0.12 0.12 0.12 0.10 0.08 0.06 0.03 0.01
0.05 0.03 0.01 0.01 0.00 0.00 0.00 0.00 0.00 0.00 0.01 0.02 0.02 0.02 0.01 0.01 0.01 0.00 0.00 0.00 0.00 0.00 0.00 0.02 0.07 0.10 0.07 0.07 0.02 0.02 0.02 0.02 0.01 0.03 0.04 0.04 0.04 0.04 0.07 0.08 0.06 0.07 0.06 0.07 0.08 0.10 0.08 0.05 0.03 0.02 0.02 0.03 0.02 0.02
0.02 0.01 0.00 0.00 0.00 0.00 0.00 0.00 0.00 0.00 0.00 0.00 0.00 0.00 0.00 0.00 0.00 0.00 0.00 0.00 0.00 0.01 0.04 0.06 0.08 0.09 0.05 0.04 0.02 0.01 0.04 0.04 0.04 0.02 0.02 0.04 0.04 0.03 0.04 0.05 0.06 0.08 0.08 0.07 0.04 0.03 0.02 0.01 0.00 0.00 0.01 0.01 0.01 0.01
0.00 0.00 0.00 0.00 0.00 0.00 0.00 0.00 0.00 0.00 0.00 0.00 0.01 0.01 0.01 0.01 0.00 0.00 0.00 0.00 0.04 0.08 0.05 0.04 0.04 0.02 0.01 0.01 0.02 0.01 0.01 0.00 0.00 0.00 0.01 0.01 0.03 0.02 0.02 0.03 0.02 0.02 0.02 0.02 0.00 0.00 0.00 0.00 0.00 0.00 0.01 0.01 0.01 0.01
0.00 0.00 0.00 0.00 0.00 0.00 0.02 0.02 0.00 0.00 0.00 0.00 0.00 0.00 0.00 0.00 0.00 0.00 0.00 0.01 0.07 0.07 0.03 0.02 0.02 0.01 0.01 0.01 0.01 0.01 0.00 0.00 0.00 0.00 0.00 0.00 0.00 0.00 0.00 0.00 0.00 0.00 0.00 0.00 0.00 0.00 0.00 0.00 0.00 0.00 0.00 0.00 0.00 0.00
0.00 0.00 0.00 0.00 0.00 0.01 0.00 0.00 0.00 0.00 0.00 0.00 0.00 0.00 0.00 0.00 0.00 0.00 0.01 0.02 0.05 0.04 0.01 0.01 0.00 0.00 0.00 0.00 0.00 0.00 0.00 0.00 0.00 0.00 0.00 0.00 0.00 0.00 0.00 0.00 0.00 0.00 0.00 0.00 0.00 0.00 0.00 0.00 0.00 0.00 0.00 0.00 0.01 0.01
0.00 0.00 0.00 0.00 0.00 0.00 0.00 0.00 0.00 0.00 0.00 0.00 0.00 0.00 0.00 0.00 0.00 0.00 0.00 0.02 0.03 0.02 0.01 0.00 0.00 0.00 0.00 0.00 0.00 0.00 0.00 0.00 0.00 0.00 0.00 0.00 0.00 0.00 0.00 0.00 0.00 0.00 0.00 0.01 0.01 0.01 0.00 0.00 0.00 0.00 0.00 0.00 0.00 0.00
0.00 0.00 0.00 0.00 0.00 0.00 0.00 0.00 0.00 0.00 0.00 0.00 0.00 0.00 0.00 0.00 0.00 0.01 0.00 0.01 0.02 0.01 0.01 0.01 0.01 0.00 0.00 0.00 0.00 0.00 0.00 0.00 0.00 0.00 0.00 0.00 0.00 0.00 0.00 0.00 0.01 0.01 0.00 0.00 0.00 0.01 0.00 0.00 0.00 0.00 0.00 0.00 0.00 0.00
0.00 0.00 0.00 0.00 0.00 0.00 0.00 0.00 0.00 0.00 0.00 0.00 0.00 0.00 0.00 0.00 0.00 0.03 0.05 0.01 0.00 0.01 0.00 0.00 0.00 0.00 0.00 0.00 0.00 0.00 0.00 0.00 0.00 0.00 0.00 0.00 0.00 0.00 0.00 0.00 0.01 0.01 0.00 0.00 0.00 0.00 0.01 0.00 0.00 0.00 0.00 0.00 0.00 0.00
0.00 0.00 0.00 0.00 0.00 0.00 0.00 0.00 0.00 0.00 0.01 0.00 0.00 0.00 0.00 0.00 0.04 0.09 0.07 0.04 0.00 0.00 0.00 0.00 0.00 0.00 0.00 0.00 0.00 0.00 0.00 0.00 0.00 0.00 0.00 0.00 0.00 0.00 0.00 0.00 0.00 0.00 0.00 0.00 0.00 0.00 0.00 0.00 0.00 0.01 0.01 0.00 0.01 0.01
0.00 0.00 0.00 0.00 0.00 0.00 0.01 0.01 0.01 0.01 0.01 0.00 0.00 0.01 0.02 0.06 0.09 0.08 0.05 0.01 0.00 0.00 0.00 0.00 0.00 0.00 0.00 0.00 0.00 0.00 0.00 0.00 0.00 0.00 0.00 0.01 0.01 0.01 0.00 0.00 0.00 0.00 0.01 0.01 0.01 0.01 0.00 0.00 0.00 0.00 0.00 0.00 0.01 0.01
0.00 0.00 0.00 0.00 0.00 0.01 0.05 0.04 0.03 0.02 0.00 0.00 0.01 0.03 0.05 0.16 0.22 0.08 0.02 0.01 0.01 0.00 0.00 0.00 0.00 0.00 0.00 0.00 0.00 0.00 0.00 0.00 0.00 0.00 0.01 0.01 0.01 0.01 0.00 0.01 0.01 0.01 0.01 0.01 0.01 0.01 0.01 0.00 0.01 0.01 0.01 0.01 0.01 0.01
0.00 0.00 0.00 0.00 0.02 0.05 0.06 0.03 0.02 0.01 0.01 0.00 0.00 0.01 0.05 0.13 0.15 0.15 0.08 0.03 0.01 0.00 0.00 0.01 0.00 0.00 0.00 0.00 0.00 0.00 0.01 0.00 0.00 0.00 0.00 0.00 0.00 0.01 0.00 0.00 0.00 0.01 0.00 0.00 0.00 0.00 0.00 0.00 0.00 0.00 0.00 0.00 0.00 0.00
0.00 0.00 0.00 0.00 0.03 0.04 0.08 0.03 0.01 0.02 0.02 0.01 0.01 0.01 0.01 0.00 0.02 0.05 0.08 0.04 0.01 0.01 0.00 0.00 0.01 0.01 0.00 0.00 0.00 0.00 0.00 0.00 0.00 0.00 0.00 0.00 0.00 0.00 0.00 0.00 0.00 0.00 0.00 0.00 0.00 0.00 0.00 0.00 0.00 0.00 0.00 0.00 0.00 0.00
0.00 0.00 0.00 0.00 0.01 0.01 0.02 0.02 0.00 0.01 0.01 0.01 0.03 0.04 0.02 0.00 0.02 0.03 0.04 0.05 0.07 0.02 0.02 0.02 0.01 0.00 0.00 0.00 0.00 0.00 0.00 0.00 0.00 0.00 0.00 0.00 0.00 0.00 0.00 0.00 0.00 0.00 0.00 0.00 0.00 0.00 0.00 0.00 0.00 0.00 0.00 0.00 0.00 0.00

GFSWCAN_prec_precacc24_099.txt.gz
Total_Precipitation_Accumulation
0.08 0.07 0.07 0.07 0.07 0.07 0.07 0.06 0.06 0.07 0.08 0.10 0.15 0.20 0.33 0.46 0.47 0.51 0.26 0.07 0.13 0.16 0.04 0.02 0.04 0.07 0.07 0.15 0.27 0.25 0.44 0.33 0.35 0.20 0.12 0.09 0.10 0.10 0.06 0.13 0.14 0.08 0.08 0.07 0.06 0.10 0.04 0.00 0.03 0.10 0.11 0.01 0.01 0.01
0.10 0.10 0.07 0.06 0.07 0.07 0.07 0.06 0.05 0.05 0.07 0.11 0.13 0.16 0.23 0.45 0.65 0.83 0.65 0.12 0.13 0.19 0.08 0.04 0.02 0.02 0.05 0.13 0.34 0.39 0.28 0.38 0.25 0.31 0.21 0.15 0.16 0.12 0.08 0.10 0.21 0.27 0.07 0.08 0.03 0.06 0.11 0.13 0.09 0.08 0.02 0.02 0.03 0.04
0.08 0.06 0.06 0.06 0.06 0.06 0.05 0.04 0.04 0.04 0.05 0.10 0.14 0.17 0.20 0.28 0.56 1.18 0.94 0.13 0.56 0.58 0.17 0.05 0.04 0.00 0.01 0.04 0.12 0.24 0.28 0.41 0.50 0.48 0.47 0.37 0.19 0.09 0.10 0.13 0.28 0.55 0.46 0.36 0.39 0.49 0.30 0.41 0.29 0.08 0.07 0.16 0.17 0.10
0.08 0.05 0.06 0.06 0.06 0.07 0.07 0.07 0.07 0.05 0.07 0.11 0.18 0.19 0.19 0.25 0.42 1.04 1.27 0.32 0.44 0.46 0.19 0.04 0.02 0.05 0.03 0.02 0.04 0.06 0.10 0.14 0.26 0.42 0.35 0.24 0.13 0.07 0.08 0.15 0.26 0.28 0.55 0.69 0.81 0.69 0.54 0.65 0.64 0.45 0.32 0.14 0.14 0.16
0.08 0.06 0.05 0.05 0.05 0.04 0.03 0.03 0.04 0.04 0.05 0.10 0.20 0.25 0.26 0.30 0.56 1.10 0.86 0.27 0.19 0.17 0.19 0.04 0.01 0.00 0.04 0.06 0.06 0.08 0.12 0.16 0.25 0.31 0.27 0.18 0.13 0.15 0.13 0.30 0.30 0.16 0.41 0.74 1.17 0.94 0.77 0.74 0.43 0.31 0.27 0.23 0.12 0.05
0.05 0.05 0.03 0.03 0.03 0.03 0.03 0.03 0.04 0.05 0.06 0.14 0.22 0.31 0.37 0.54 0.98 1.78 2.37 1.26 0.24 0.33 0.46 0.23 0.05 0.01 0.00 0.01 0.03 0.04 0.14 0.28 0.34 0.32 0.20 0.16 0.17 0.49 0.50 0.47 0.30 0.16 0.17 0.30 0.54 0.86 0.79 0.62 0.39 0.22 0.12 0.06 0.03 0.00
0.03 0.03 0.04 0.02 0.03 0.04 0.05 0.05 0.05 0.08 0.13 0.29 0.39 0.43 0.53 0.77 0.72 0.57 0.63 0.47 0.23 0.50 0.73 0.34 0.12 0.06 0.02 0.03 0.05 0.09 0.26 0.37 0.26 0.27 0.15 0.12 0.18 0.35 0.54 0.50 0.37 0.27 0.27 0.31 0.32 0.39 0.26 0.16 0.10 0.04 0.01 0.00 0.00 0.00
0.03 0.03 0.04 0.03 0.06 0.08 0.05 0.04 0.05 0.11 0.28 0.45 0.55 0.50 0.70 1.00 0.89 0.51 0.10 0.01 0.24 0.79 0.45 0.17 0.21 0.30 0.10 0.09 0.11 0.13 0.31 0.36 0.37 0.28 0.14 0.09 0.24 0.33 0.38 0.14 0.04 0.08 0.11 0.13 0.13 0.08 0.08 0.03 0.00 0.00 0.00 0.00 0.00 0.00
0.03 0.02 0.02 0.04 0.07 0.05 0.05 0.08 0.19 0.42 0.65 0.80 0.85 1.29 1.96 1.83 1.47 0.61 0.16 0.12 0.22 0.53 0.28 0.08 0.12 0.36 0.21 0.20 0.13 0.21 0.20 0.45 0.39 0.22 0.12 0.25 0.27 0.37 0.24 0.03 0.01 0.01 0.01 0.00 0.00 0.01 0.01 0.00 0.00 0.00 0.00 0.00 0.01 0.02
0.03 0.03 0.04 0.05 0.09 0.17 0.28 0.43 0.57 0.67 0.83 0.91 1.42 2.07 2.46 1.15 0.36 0.56 1.04 0.93 0.78 0.48 0.20 0.05 0.13 0.34 0.36 0.27 0.15 0.28 0.29 0.25 0.33 0.21 0.20 0.31 0.21 0.14 0.04 0.01 0.00 0.00 0.00 0.00 0.00 0.01 0.01 0.01 0.02 0.03 0.02 0.03 0.06 0.08
0.10 0.11 0.09 0.14 0.18 0.24 0.33 0.37 0.37 0.37 0.59 1.13 1.35 1.22 1.00 0.51 0.39 0.71 0.89 0.53 0.34 0.24 0.08 0.08 0.11 0.14 0.45 0.30 0.16 0.20 0.23 0.24 0.19 0.18 0.35 0.33 0.12 0.09 0.02 0.00 0.00 0.00 0.00 0.00 0.00 0.01 0.02 0.03 0.03 0.04 0.04 0.05 0.06 0.09
0.21 0.19 0.19 0.23 0.26 0.30 0.37 0.31 0.30 0.41 0.61 0.44 0.55 0.98 1.04 0.70 0.73 0.62 0.34 0.17 0.10 0.09 0.04 0.08 0.16 0.18 0.45 0.46 0.28 0.22 0.25 0.30 0.25 0.31 0.34 0.16 0.13 0.04 0.00 0.00 0.00 0.00 0.00 0.00 0.00 0.01 0.01 0.03 0.03 0.03 0.04 0.07 0.09 0.10
0.40 0.28 0.18 0.22 0.24 0.34 0.37 0.28 0.18 0.08 0.14 0.14 0.18 0.46 0.53 0.49 0.39 0.19 0.11 0.10 0.06 0.05 0.05 0.08 0.16 0.19 0.31 0.46 0.53 0.13 0.17 0.29 0.19 0.26 0.19 0.09 0.07 0.02 0.00 0.00 0.00 0.00 0.00 0.00 0.01 0.01 0.01 0.02 0.03 0.03 0.04 0.06 0.06 0.08
0.38 0.20 0.18 0.18 0.18 0.28 0.23 0.20 0.08 0.11 0.12 0.22 0.22 0.18 0.15 0.08 0.04 0.05 0.05 0.03 0.02 0.03 0.03 0.04 0.04 0.09 0.16 0.25 0.32 0.05 0.04 0.07 0.16 0.07 0.06 0.09 0.04 0.03 0.01 0.01 0.01 0.02 0.02 0.02 0.03 0.03 0.04 0.04 0.05 0.06 0.07 0.07 0.06 0.08
0.30 0.29 0.28 0.18 0.18 0.16 0.17 0.15 0.08 0.03 0.02 0.05 0.02 0.01 0.03 0.06 0.09 0.09 0.04 0.03 0.04 0.03 0.03 0.03 0.02 0.05 0.06 0.10 0.02 0.01 0.02 0.02 0.03 0.06 0.07 0.05 0.03 0.02 0.03 0.03 0.03 0.03 0.03 0.04 0.04 0.05 0.06 0.07 0.06 0.08 0.10 0.10 0.08 0.09
0.38 0.50 0.37 0.18 0.09 0.06 0.05 0.03 0.01 0.00 0.00 0.00 0.03 0.07 0.10 0.09 0.12 0.08 0.08 0.08 0.08 0.06 0.01 0.01 0.02 0.04 0.04 0.01 0.00 0.01 0.03 0.03 0.07 0.06 0.05 0.03 0.03 0.03 0.04 0.04 0.05 0.05 0.05 0.05 0.06 0.06 0.06 0.08 0.09 0.10 0.11 0.10 0.11 0.10
0.26 0.33 0.33 0.13 0.05 0.03 0.00 0.00 0.00 0.00 0.00 0.01 0.04 0.06 0.05 0.05 0.09 0.10 0.10 0.08 0.05 0.03 0.01 0.00 0.00 0.01 0.01 0.00 0.01 0.02 0.05 0.06 0.05 0.06 0.04 0.04 0.04 0.04 0.04 0.05 0.06 0.06 0.06 0.07 0.07 0.08 0.08 0.09 0.09 0.09 0.09 0.12 0.10 0.10
0.13 0.13 0.09 0.03 0.01 0.00 0.00 0.00 0.00 0.00 0.02 0.05 0.05 0.08 0.03 0.05 0.08 0.07 0.03 0.01 0.01 0.00 0.00 0.00 0.00 0.01 0.02 0.04 0.05 0.08 0.10 0.10 0.07 0.06 0.05 0.04 0.04 0.04 0.04 0.04 0.05 0.05 0.06 0.06 0.08 0.08 0.09 0.10 0.08 0.08 0.08 0.09 0.07 0.05
0.09 0.04 0.01 0.01 0.00 0.00 0.00 0.00 0.00 0.01 0.04 0.04 0.05 0.05 0.01 0.02 0.02 0.01 0.00 0.00 0.00 0.00 0.00 0.00 0.01 0.03 0.04 0.04 0.03 0.04 0.03 0.03 0.03 0.03 0.02 0.03 0.02 0.02 0.03 0.03 0.04 0.05 0.06 0.07 0.07 0.07 0.09 0.10 0.09 0.08 0.07 0.05 0.03 0.01
0.05 0.04 0.01 0.01 0.00 0.00 0.00 0.00 0.00 0.00 0.01 0.02 0.02 0.02 0.01 0.01 0.01 0.00 0.00 0.00 0.00 0.00 0.00 0.02 0.06 0.09 0.07 0.06 0.02 0.02 0.02 0.01 0.01 0.02 0.04 0.04 0.03 0.03 0.06 0.06 0.04 0.04 0.05 0.06 0.06 0.08 0.06 0.04 0.02 0.02 0.02 0.03 0.03 0.03
0.04 0.01 0.00 0.00 0.00 0.00 0.00 0.00 0.00 0.00 0.00 0.01 0.00 0.00 0.01 0.00 0.00 0.00 0.00 0.00 0.00 0.01 0.03 0.06 0.07 0.08 0.04 0.03 0.02 0.01 0.03 0.03 0.04 0.02 0.02 0.03 0.03 0.02 0.02 0.03 0.05 0.07 0.06 0.06 0.03 0.03 0.02 0.01 0.00 0.00 0.01 0.01 0.01 0.01
0.01 0.00 0.00 0.00 0.00 0.00 0.00 0.00 0.00 0.00 0.00 0.01 0.01 0.01 0.01 0.01 0.00 0.00 0.00 0.00 0.03 0.07 0.04 0.04 0.03 0.02 0.01 0.01 0.01 0.01 0.01 0.00 0.00 0.00 0.00 0.01 0.03 0.02 0.02 0.02 0.02 0.02 0.02 0.02 0.01 0.00 0.00 0.00 0.00 0.00 0.01 0.01 0.01 0.01
0.00 0.00 0.00 0.00 0.00 0.00 0.01 0.02 0.00 0.00 0.00 0.01 0.00 0.00 0.00 0.00 0.00 0.00 0.00 0.01 0.06 0.06 0.02 0.01 0.01 0.00 0.01 0.01 0.00 0.00 0.00 0.00 0.00 0.00 0.00 0.00 0.00 0.00 0.00 0.00 0.00 0.00 0.00 0.00 0.00 0.00 0.00 0.00 0.00 0.00 0.00 0.00 0.00 0.00
0.00 0.00 0.00 0.00 0.00 0.02 0.00 0.00 0.00 0.00 0.00 0.00 0.00 0.00 0.00 0.00 0.00 0.00 0.01 0.02 0.04 0.04 0.01 0.00 0.00 0.00 0.00 0.00 0.00 0.00 0.00 0.00 0.00 0.00 0.00 0.00 0.00 0.00 0.00 0.00 0.00 0.00 0.00 0.00 0.00 0.00 0.00 0.00 0.00 0.00 0.00 0.00 0.01 0.01
0.00 0.00 0.00 0.00 0.00 0.00 0.00 0.00 0.00 0.00 0.00 0.00 0.00 0.00 0.00 0.00 0.00 0.00 0.00 0.02 0.03 0.03 0.01 0.00 0.00 0.00 0.00 0.00 0.00 0.00 0.00 0.00 0.00 0.00 0.00 0.00 0.00 0.00 0.00 0.00 0.00 0.00 0.00 0.01 0.01 0.01 0.00 0.00 0.00 0.00 0.00 0.00 0.00 0.00
0.00 0.00 0.00 0.00 0.00 0.00 0.00 0.00 0.00 0.00 0.00 0.00 0.00 0.00 0.00 0.00 0.00 0.01 0.00 0.01 0.02 0.02 0.02 0.01 0.01 0.00 0.00 0.00 0.00 0.00 0.00 0.00 0.00 0.00 0.00 0.00 0.00 0.00 0.00 0.00 0.01 0.01 0.00 0.00 0.00 0.01 0.00 0.00 0.00 0.00 0.00 0.00 0.00 0.00
0.00 0.00 0.00 0.00 0.00 0.00 0.00 0.00 0.00 0.00 0.00 0.00 0.00 0.00 0.00 0.00 0.00 0.03 0.05 0.01 0.00 0.01 0.00 0.00 0.00 0.00 0.00 0.00 0.00 0.00 0.00 0.00 0.00 0.00 0.00 0.00 0.00 0.00 0.00 0.00 0.01 0.01 0.00 0.00 0.00 0.00 0.01 0.00 0.00 0.00 0.00 0.00 0.00 0.00
0.00 0.00 0.00 0.00 0.00 0.00 0.00 0.00 0.00 0.00 0.01 0.01 0.00 0.00 0.00 0.00 0.04 0.09 0.07 0.04 0.00 0.00 0.00 0.00 0.00 0.00 0.00 0.00 0.00 0.00 0.00 0.00 0.00 0.00 0.00 0.00 0.00 0.00 0.00 0.00 0.00 0.00 0.00 0.00 0.00 0.00 0.00 0.00 0.00 0.01 0.01 0.00 0.01 0.01
0.00 0.00 0.00 0.00 0.00 0.00 0.01 0.01 0.01 0.01 0.01 0.00 0.00 0.01 0.02 0.06 0.09 0.08 0.05 0.01 0.00 0.00 0.00 0.00 0.00 0.00 0.00 0.00 0.00 0.00 0.00 0.00 0.00 0.00 0.00 0.01 0.01 0.01 0.00 0.00 0.00 0.00 0.01 0.01 0.01 0.01 0.00 0.00 0.00 0.00 0.00 0.00 0.01 0.01
0.00 0.00 0.00 0.00 0.00 0.01 0.05 0.04 0.03 0.02 0.00 0.01 0.01 0.03 0.05 0.16 0.22 0.08 0.02 0.01 0.01 0.00 0.00 0.00 0.00 0.00 0.00 0.00 0.00 0.00 0.00 0.00 0.00 0.00 0.01 0.01 0.01 0.01 0.00 0.01 0.01 0.00 0.01 0.01 0.01 0.01 0.01 0.00 0.01 0.00 0.01 0.01 0.01 0.01
0.00 0.00 0.00 0.00 0.02 0.05 0.06 0.03 0.02 0.01 0.01 0.00 0.00 0.01 0.05 0.13 0.15 0.16 0.09 0.03 0.01 0.00 0.00 0.01 0.00 0.00 0.00 0.00 0.00 0.00 0.01 0.00 0.00 0.00 0.00 0.00 0.00 0.01 0.00 0.00 0.00 0.01 0.00 0.00 0.00 0.00 0.00 0.00 0.00 0.00 0.00 0.00 0.00 0.00
0.00 0.00 0.00 0.00 0.03 0.04 0.08 0.03 0.01 0.02 0.02 0.01 0.01 0.01 0.01 0.00 0.02 0.05 0.09 0.06 0.03 0.01 0.00 0.00 0.01 0.01 0.00 0.00 0.00 0.00 0.00 0.00 0.00 0.00 0.00 0.00 0.00 0.00 0.00 0.00 0.00 0.00 0.00 0.00 0.00 0.00 0.00 0.00 0.00 0.00 0.00 0.00 0.00 0.00
0.00 0.00 0.00 0.00 0.01 0.01 0.02 0.02 0.00 0.01 0.01 0.01 0.03 0.03 0.02 0.00 0.02 0.04 0.04 0.05 0.08 0.03 0.02 0.02 0.01 0.00 0.00 0.00 0.00 0.00 0.00 0.00 0.00 0.00 0.00 0.00 0.00 0.00 0.00 0.00 0.00 0.00 0.00 0.00 0.00 0.00 0.00 0.00 0.00 0.00 0.00 0.00 0.00 0.00

GFSWCAN_prec_precacc24_102.txt.gz
Total_Precipitation_Accumulation
0.07 0.06 0.05 0.06 0.05 0.06 0.06 0.05 0.05 0.05 0.06 0.06 0.11 0.15 0.29 0.41 0.40 0.39 0.17 0.03 0.08 0.08 0.01 0.01 0.02 0.05 0.05 0.13 0.23 0.22 0.33 0.25 0.28 0.16 0.10 0.08 0.10 0.10 0.06 0.14 0.14 0.08 0.09 0.06 0.05 0.09 0.05 0.00 0.02 0.09 0.11 0.02 0.01 0.02
0.07 0.08 0.08 0.07 0.05 0.05 0.06 0.06 0.05 0.05 0.07 0.09 0.10 0.12 0.20 0.40 0.59 0.75 0.51 0.06 0.10 0.14 0.04 0.02 0.01 0.01 0.04 0.12 0.30 0.33 0.26 0.38 0.26 0.30 0.20 0.16 0.16 0.13 0.09 0.12 0.21 0.30 0.08 0.08 0.05 0.10 0.18 0.14 0.09 0.09 0.03 0.05 0.06 0.06
0.07 0.06 0.06 0.07 0.05 0.05 0.05 0.05 0.05 0.04 0.05 0.07 0.09 0.13 0.17 0.23 0.49 1.11 0.84 0.10 0.48 0.43 0.12 0.02 0.01 0.00 0.00 0.03 0.11 0.21 0.27 0.40 0.50 0.48 0.47 0.37 0.20 0.10 0.10 0.14 0.29 0.55 0.46 0.37 0.43 0.52 0.33 0.43 0.32 0.09 0.09 0.19 0.20 0.13
0.11 0.07 0.06 0.06 0.06 0.06 0.07 0.08 0.07 0.06 0.07 0.09 0.11 0.12 0.15 0.20 0.31 0.94 1.20 0.30 0.40 0.37 0.12 0.01 0.00 0.00 0.01 0.01 0.04 0.06 0.09 0.14 0.25 0.41 0.33 0.22 0.12 0.07 0.09 0.16 0.26 0.28 0.55 0.69 0.84 0.72 0.57 0.67 0.66 0.47 0.34 0.16 0.14 0.17
0.12 0.09 0.07 0.05 0.05 0.05 0.04 0.04 0.04 0.04 0.05 0.06 0.10 0.17 0.20 0.23 0.39 0.95 0.84 0.25 0.19 0.19 0.13 0.03 0.01 0.00 0.02 0.05 0.05 0.07 0.09 0.13 0.22 0.26 0.24 0.17 0.11 0.13 0.12 0.29 0.30 0.17 0.41 0.74 1.18 0.96 0.79 0.77 0.45 0.32 0.28 0.25 0.13 0.05
0.06 0.07 0.05 0.05 0.05 0.04 0.04 0.04 0.05 0.05 0.06 0.07 0.10 0.21 0.28 0.36 0.78 1.70 2.24 1.03 0.18 0.35 0.46 0.22 0.05 0.01 0.00 0.01 0.03 0.04 0.10 0.21 0.28 0.27 0.18 0.15 0.16 0.46 0.49 0.48 0.30 0.16 0.17 0.30 0.55 0.87 0.80 0.64 0.41 0.24 0.15 0.08 0.03 0.00
0.04 0.05 0.06 0.04 0.03 0.03 0.05 0.06 0.07 0.09 0.12 0.16 0.23 0.31 0.43 0.68 0.74 0.58 0.61 0.33 0.16 0.49 0.77 0.34 0.11 0.06 0.02 0.03 0.04 0.07 0.19 0.28 0.21 0.18 0.10 0.11 0.18 0.32 0.53 0.50 0.38 0.27 0.28 0.34 0.35 0.42 0.29 0.18 0.11 0.05 0.01 0.00 0.00 0.00
0.03 0.03 0.04 0.05 0.06 0.05 0.03 0.03 0.05 0.11 0.21 0.29 0.38 0.43 0.65 1.05 0.92 0.54 0.10 0.01 0.24 0.83 0.52 0.18 0.20 0.29 0.10 0.08 0.09 0.10 0.27 0.31 0.30 0.20 0.07 0.09 0.22 0.31 0.37 0.13 0.04 0.08 0.12 0.15 0.16 0.11 0.10 0.06 0.01 0.00 0.00 0.00 0.00 0.00
0.04 0.02 0.03 0.04 0.06 0.04 0.04 0.06 0.15 0.32 0.48 0.58 0.69 1.19 1.89 1.88 1.53 0.62 0.17 0.12 0.21 0.61 0.35 0.09 0.11 0.32 0.19 0.18 0.12 0.17 0.13 0.31 0.27 0.15 0.06 0.19 0.22 0.34 0.22 0.02 0.01 0.01 0.01 0.01 0.00 0.02 0.04 0.02 0.00 0.00 0.00 0.00 0.00 0.01
0.03 0.04 0.04 0.07 0.08 0.12 0.18 0.25 0.34 0.43 0.59 0.73 1.40 2.09 2.41 1.09 0.36 0.56 1.14 0.97 0.80 0.51 0.23 0.06 0.13 0.34 0.34 0.22 0.11 0.14 0.14 0.11 0.23 0.10 0.15 0.21 0.16 0.12 0.03 0.01 0.00 0.00 0.00 0.00 0.00 0.01 0.01 0.01 0.01 0.01 0.00 0.01 0.01 0.02
0.09 0.11 0.10 0.15 0.18 0.21 0.25 0.25 0.24 0.30 0.61 1.24 1.45 1.21 0.88 0.50 0.40 0.75 0.98 0.60 0.35 0.24 0.09 0.08 0.11 0.12 0.40 0.26 0.12 0.09 0.13 0.17 0.15 0.14 0.30 0.30 0.11 0.09 0.02 0.00 0.00 0.00 0.00 0.00 0.00 0.01 0.02 0.02 0.02 0.02 0.01 0.01 0.01 0.02
0.20 0.19 0.20 0.24 0.25 0.30 0.35 0.29 0.29 0.48 0.75 0.51 0.56 0.93 1.17 0.81 0.81 0.71 0.39 0.19 0.08 0.06 0.02 0.05 0.10 0.11 0.36 0.43 0.27 0.17 0.21 0.27 0.25 0.31 0.34 0.16 0.12 0.03 0.00 0.00 0.00 0.00 0.00 0.00 0.00 0.00 0.01 0.02 0.02 0.01 0.02 0.02 0.03 0.04
0.40 0.27 0.19 0.22 0.25 0.35 0.38 0.30 0.22 0.17 0.33 0.41 0.40 0.57 0.79 0.66 0.49 0.25 0.12 0.10 0.05 0.03 0.02 0.04 0.11 0.10 0.24 0.44 0.52 0.15 0.16 0.28 0.21 0.30 0.20 0.08 0.06 0.02 0.00 0.00 0.00 0.00 0.00 0.00 0.00 0.00 0.01 0.01 0.02 0.02 0.03 0.04 0.03 0.04
0.39 0.19 0.18 0.18 0.19 0.31 0.28 0.33 0.24 0.28 0.47 0.51 0.41 0.29 0.25 0.17 0.05 0.05 0.04 0.02 0.01 0.02 0.02 0.03 0.04 0.06 0.15 0.25 0.33 0.10 0.04 0.07 0.16 0.07 0.05 0.08 0.04 0.02 0.01 0.01 0.01 0.01 0.01 0.01 0.01 0.01 0.02 0.02 0.03 0.04 0.04 0.05 0.04 0.06
0.31 0.29 0.29 0.20 0.23 0.24 0.32 0.42 0.33 0.20 0.24 0.21 0.08 0.04 0.04 0.05 0.08 0.08 0.03 0.03 0.03 0.02 0.02 0.03 0.02 0.05 0.06 0.11 0.04 0.03 0.03 0.03 0.03 0.06 0.06 0.05 0.03 0.02 0.02 0.02 0.02 0.02 0.02 0.02 0.02 0.02 0.03 0.04 0.04 0.06 0.07 0.06 0.06 0.07
0.43 0.60 0.46 0.27 0.22 0.20 0.25 0.21 0.12 0.06 0.06 0.04 0.03 0.07 0.10 0.08 0.11 0.08 0.08 0.08 0.07 0.05 0.01 0.01 0.02 0.04 0.05 0.04 0.02 0.01 0.03 0.03 0.06 0.05 0.05 0.02 0.01 0.01 0.01 0.01 0.02 0.02 0.02 0.02 0.03 0.03 0.03 0.04 0.05 0.06 0.07 0.07 0.07 0.07
0.46 0.55 0.44 0.25 0.17 0.11 0.05 0.02 0.01 0.01 0.03 0.02 0.04 0.06 0.05 0.05 0.09 0.10 0.10 0.08 0.05 0.02 0.01 0.00 0.00 0.01 0.01 0.00 0.01 0.02 0.04 0.05 0.04 0.04 0.02 0.01 0.01 0.01 0.01 0.02 0.02 0.02 0.02 0.03 0.03 0.04 0.04 0.04 0.04 0.05 0.05 0.07 0.06 0.06
0.35 0.26 0.15 0.06 0.03 0.01 0.01 0.00 0.00 0.00 0.02 0.05 0.05 0.08 0.03 0.06 0.08 0.07 0.04 0.01 0.00 0.00 0.00 0.00 0.00 0.00 0.01 0.02 0.03 0.05 0.07 0.07 0.04 0.04 0.03 0.02 0.02 0.02 0.01 0.02 0.02 0.02 0.02 0.03 0.04 0.04 0.05 0.05 0.04 0.04 0.05 0.05 0.05 0.03
0.22 0.13 0.03 0.01 0.00 0.00 0.00 0.00 0.00 0.01 0.04 0.04 0.06 0.06 0.02 0.03 0.03 0.02 0.01 0.00 0.00 0.00 0.00 0.00 0.00 0.02 0.04 0.03 0.02 0.03 0.03 0.02 0.03 0.02 0.02 0.02 0.01 0.01 0.01 0.01 0.01 0.02 0.03 0.04 0.03 0.04 0.05 0.07 0.07 0.06 0.06 0.05 0.03 0.02
0.10 0.05 0.02 0.01 0.00 0.00 0.00 0.00 0.00 0.00 0.01 0.02 0.03 0.03 0.02 0.02 0.01 0.01 0.00 0.00 0.00 0.00 0.00 0.02 0.06 0.08 0.06 0.05 0.02 0.02 0.01 0.01 0.01 0.02 0.04 0.03 0.02 0.02 0.04 0.04 0.02 0.02 0.03 0.04 0.04 0.06 0.05 0.04 0.02 0.02 0.02 0.03 0.03 0.03
0.04 0.01 0.00 0.00 0.00 0.00 0.00 0.00 0.00 0.00 0.00 0.01 0.01 0.00 0.01 0.01 0.01 0.00 0.00 0.00 0.00 0.01 0.03 0.05 0.06 0.07 0.03 0.02 0.01 0.01 0.03 0.03 0.04 0.02 0.02 0.03 0.03 0.01 0.02 0.02 0.04 0.06 0.05 0.05 0.03 0.03 0.02 0.01 0.01 0.00 0.00 0.01 0.01 0.01
0.02 0.00 0.00 0.00 0.00 0.00 0.00 0.00 0.00 0.00 0.00 0.01 0.01 0.01 0.01 0.01 0.01 0.00 0.00 0.00 0.03 0.06 0.04 0.03 0.03 0.01 0.00 0.01 0.01 0.00 0.00 0.00 0.00 0.00 0.00 0.01 0.03 0.01 0.01 0.02 0.01 0.02 0.02 0.02 0.01 0.00 0.00 0.00 0.00 0.00 0.00 0.01 0.01 0.01
0.00 0.00 0.00 0.00 0.00 0.00 0.01 0.01 0.00 0.00 0.00 0.01 0.00 0.00 0.00 0.00 0.00 0.00 0.00 0.01 0.05 0.05 0.01 0.01 0.01 0.00 0.00 0.00 0.00 0.00 0.00 0.00 0.00 0.00 0.00 0.00 0.00 0.00 0.00 0.00 0.00 0.00 0.00 0.00 0.00 0.00 0.00 0.00 0.00 0.00 0.00 0.00 0.00 0.00
0.00 0.00 0.00 0.00 0.00 0.01 0.00 0.00 0.00 0.00 0.00 0.00 0.00 0.00 0.00 0.00 0.00 0.00 0.01 0.02 0.04 0.03 0.01 0.00 0.00 0.00 0.00 0.00 0.00 0.00 0.00 0.00 0.00 0.00 0.00 0.00 0.00 0.00 0.00 0.00 0.00 0.00 0.00 0.00 0.00 0.00 0.00 0.00 0.00 0.00 0.00 0.01 0.01 0.01
0.00 0.00 0.00 0.00 0.00 0.00 0.00 0.00 0.00 0.00 0.00 0.00 0.00 0.00 0.00 0.00 0.00 0.00 0.00 0.02 0.03 0.03 0.01 0.00 0.00 0.00 0.00 0.00 0.00 0.00 0.00 0.00 0.00 0.00 0.00 0.00 0.00 0.00 0.00 0.00 0.00 0.00 0.00 0.01 0.01 0.00 0.00 0.00 0.00 0.00 0.00 0.00 0.00 0.01
0.00 0.00 0.00 0.00 0.00 0.00 0.00 0.00 0.00 0.00 0.00 0.00 0.00 0.00 0.00 0.00 0.00 0.00 0.00 0.01 0.02 0.02 0.02 0.01 0.01 0.00 0.00 0.00 0.00 0.00 0.00 0.00 0.00 0.00 0.00 0.00 0.00 0.00 0.00 0.00 0.01 0.01 0.00 0.00 0.00 0.01 0.00 0.00 0.00 0.00 0.00 0.00 0.00 0.00
0.00 0.00 0.00 0.00 0.00 0.00 0.00 0.00 0.00 0.00 0.00 0.00 0.00 0.00 0.00 0.00 0.00 0.03 0.05 0.01 0.00 0.01 0.00 0.00 0.00 0.00 0.00 0.00 0.00 0.00 0.00 0.00 0.00 0.00 0.00 0.00 0.00 0.00 0.00 0.00 0.01 0.01 0.00 0.00 0.00 0.00 0.01 0.00 0.00 0.00 0.00 0.00 0.00 0.00
0.00 0.00 0.00 0.00 0.00 0.00 0.00 0.00 0.00 0.00 0.00 0.01 0.00 0.00 0.00 0.00 0.04 0.08 0.07 0.04 0.00 0.00 0.00 0.00 0.00 0.00 0.00 0.00 0.00 0.00 0.00 0.00 0.00 0.00 0.00 0.00 0.00 0.00 0.00 0.00 0.00 0.00 0.00 0.00 0.00 0.00 0.00 0.00 0.01 0.01 0.01 0.01 0.01 0.01
0.00 0.00 0.00 0.00 0.00 0.00 0.01 0.01 0.01 0.01 0.01 0.00 0.00 0.01 0.02 0.06 0.09 0.08 0.05 0.02 0.00 0.00 0.00 0.00 0.00 0.00 0.00 0.00 0.00 0.00 0.00 0.00 0.00 0.00 0.00 0.01 0.01 0.01 0.00 0.00 0.00 0.00 0.01 0.01 0.01 0.01 0.00 0.00 0.00 0.00 0.00 0.00 0.01 0.01
0.00 0.00 0.00 0.00 0.00 0.01 0.04 0.04 0.03 0.02 0.01 0.00 0.01 0.03 0.05 0.15 0.21 0.08 0.04 0.03 0.01 0.01 0.00 0.00 0.00 0.00 0.00 0.00 0.00 0.00 0.00 0.00 0.00 0.00 0.00 0.01 0.01 0.01 0.00 0.00 0.01 0.00 0.00 0.01 0.01 0.01 0.01 0.00 0.01 0.00 0.01 0.01 0.01 0.01
0.00 0.00 0.00 0.00 0.02 0.05 0.06 0.04 0.02 0.01 0.01 0.00 0.00 0.00 0.05 0.12 0.16 0.17 0.11 0.05 0.01 0.00 0.00 0.01 0.00 0.00 0.00 0.00 0.00 0.00 0.01 0.00 0.00 0.00 0.00 0.00 0.00 0.00 0.00 0.00 0.00 0.00 0.00 0.00 0.00 0.00 0.00 0.00 0.00 0.00 0.00 0.00 0.00 0.00
0.00 0.00 0.00 0.00 0.03 0.04 0.08 0.03 0.01 0.02 0.02 0.01 0.01 0.01 0.01 0.01 0.03 0.06 0.10 0.07 0.04 0.02 0.01 0.00 0.01 0.01 0.00 0.00 0.00 0.00 0.00 0.00 0.00 0.00 0.00 0.00 0.00 0.00 0.00 0.00 0.00 0.00 0.00 0.00 0.00 0.00 0.00 0.00 0.00 0.00 0.00 0.00 0.00 0.00
0.00 0.00 0.00 0.00 0.01 0.01 0.02 0.02 0.00 0.01 0.01 0.02 0.03 0.04 0.02 0.00 0.02 0.04 0.05 0.06 0.09 0.04 0.02 0.02 0.01 0.00 0.00 0.00 0.00 0.00 0.00 0.00 0.00 0.00 0.00 0.00 0.00 0.00 0.00 0.00 0.00 0.00 0.00 0.00 0.00 0.00 0.00 0.00 0.00 0.00 0.00 0.00 0.00 0.00

GFSWCAN_prec_precacc24_108.txt.gz
Total_Precipitation_Accumulation
0.13 0.10 0.06 0.05 0.04 0.05 0.06 0.05 0.05 0.06 0.05 0.04 0.06 0.08 0.12 0.17 0.22 0.24 0.14 0.01 0.05 0.05 0.01 0.00 0.00 0.01 0.02 0.04 0.07 0.06 0.11 0.16 0.17 0.04 0.03 0.02 0.04 0.05 0.09 0.11 0.11 0.07 0.12 0.06 0.05 0.09 0.07 0.00 0.01 0.05 0.09 0.04 0.03 0.03
0.11 0.10 0.08 0.06 0.06 0.04 0.04 0.04 0.04 0.06 0.06 0.07 0.06 0.08 0.12 0.20 0.30 0.44 0.31 0.03 0.04 0.08 0.01 0.00 0.00 0.00 0.00 0.03 0.07 0.08 0.14 0.35 0.25 0.27 0.16 0.09 0.12 0.10 0.08 0.29 0.19 0.26 0.10 0.06 0.06 0.12 0.20 0.13 0.08 0.09 0.04 0.06 0.07 0.07
0.10 0.08 0.07 0.07 0.06 0.05 0.04 0.04 0.04 0.05 0.06 0.07 0.08 0.10 0.11 0.15 0.34 0.67 0.48 0.07 0.35 0.27 0.04 0.00 0.01 0.00 0.00 0.00 0.03 0.09 0.19 0.31 0.44 0.42 0.35 0.26 0.16 0.10 0.09 0.17 0.25 0.51 0.46 0.30 0.36 0.48 0.23 0.29 0.27 0.10 0.10 0.19 0.20 0.13
0.15 0.12 0.09 0.07 0.07 0.06 0.07 0.07 0.06 0.06 0.07 0.09 0.10 0.10 0.09 0.14 0.22 0.61 0.83 0.27 0.27 0.25 0.05 0.03 0.00 0.00 0.00 0.00 0.00 0.02 0.04 0.07 0.17 0.26 0.16 0.10 0.11 0.08 0.07 0.19 0.26 0.25 0.52 0.68 0.83 0.70 0.43 0.44 0.55 0.45 0.35 0.16 0.14 0.17
0.14 0.14 0.12 0.08 0.06 0.05 0.04 0.03 0.04 0.04 0.04 0.05 0.07 0.11 0.12 0.16 0.28 0.56 0.60 0.22 0.14 0.18 0.13 0.06 0.03 0.01 0.00 0.00 0.00 0.00 0.01 0.01 0.03 0.05 0.09 0.13 0.12 0.09 0.12 0.29 0.27 0.13 0.37 0.69 1.15 0.94 0.74 0.67 0.45 0.32 0.28 0.25 0.13 0.05
0.08 0.10 0.09 0.08 0.08 0.05 0.04 0.04 0.04 0.05 0.05 0.04 0.05 0.11 0.16 0.25 0.46 1.12 1.73 0.76 0.17 0.37 0.39 0.11 0.10 0.03 0.00 0.00 0.00 0.00 0.02 0.04 0.02 0.06 0.08 0.13 0.13 0.37 0.42 0.47 0.26 0.15 0.17 0.30 0.55 0.87 0.81 0.64 0.42 0.24 0.15 0.08 0.03 0.00
0.05 0.06 0.09 0.07 0.06 0.06 0.05 0.05 0.06 0.08 0.11 0.10 0.11 0.16 0.26 0.51 0.54 0.51 0.49 0.21 0.14 0.42 0.63 0.16 0.09 0.05 0.01 0.00 0.00 0.01 0.04 0.07 0.11 0.08 0.06 0.06 0.11 0.24 0.46 0.38 0.30 0.26 0.28 0.34 0.36 0.43 0.31 0.19 0.12 0.05 0.01 0.00 0.00 0.00
0.05 0.04 0.07 0.09 0.07 0.04 0.04 0.04 0.05 0.09 0.13 0.12 0.15 0.24 0.39 0.79 0.98 0.61 0.14 0.02 0.23 0.71 0.41 0.11 0.15 0.22 0.06 0.03 0.03 0.04 0.05 0.07 0.11 0.11 0.06 0.05 0.13 0.16 0.19 0.10 0.03 0.08 0.12 0.15 0.16 0.12 0.12 0.08 0.01 0.00 0.00 0.00 0.00 0.00
0.06 0.04 0.04 0.08 0.08 0.06 0.05 0.05 0.09 0.13 0.19 0.24 0.36 0.77 1.46 1.72 1.53 0.64 0.19 0.11 0.18 0.57 0.30 0.05 0.08 0.28 0.16 0.10 0.06 0.06 0.04 0.11 0.11 0.07 0.03 0.13 0.15 0.20 0.12 0.02 0.01 0.01 0.01 0.01 0.01 0.02 0.04 0.03 0.01 0.00 0.00 0.00 0.00 0.01
0.04 0.04 0.04 0.08 0.09 0.11 0.11 0.09 0.11 0.21 0.39 0.60 1.30 2.02 2.17 1.00 0.43 0.60 1.25 0.94 0.71 0.50 0.18 0.05 0.06 0.35 0.32 0.18 0.09 0.09 0.14 0.09 0.16 0.07 0.10 0.15 0.10 0.09 0.02 0.00 0.00 0.00 0.00 0.00 0.00 0.01 0.01 0.01 0.01 0.01 0.00 0.00 0.01 0.01
0.08 0.08 0.07 0.09 0.15 0.16 0.16 0.14 0.17 0.29 0.61 1.25 1.48 1.08 0.73 0.49 0.45 0.85 1.00 0.65 0.34 0.20 0.07 0.03 0.06 0.13 0.40 0.24 0.11 0.08 0.10 0.12 0.06 0.10 0.23 0.20 0.08 0.07 0.02 0.00 0.00 0.00 0.00 0.00 0.00 0.01 0.01 0.02 0.02 0.01 0.01 0.00 0.00 0.01
0.18 0.17 0.16 0.17 0.21 0.25 0.31 0.27 0.26 0.45 0.74 0.54 0.53 0.91 1.39 0.99 0.85 0.78 0.44 0.22 0.04 0.02 0.01 0.03 0.08 0.11 0.37 0.38 0.24 0.15 0.12 0.21 0.15 0.29 0.25 0.10 0.10 0.03 0.00 0.00 0.00 0.00 0.00 0.00 0.00 0.00 0.00 0.01 0.01 0.00 0.01 0.01 0.02 0.02
0.38 0.27 0.18 0.21 0.25 0.34 0.35 0.27 0.21 0.21 0.41 0.51 0.64 0.86 1.16 0.82 0.54 0.25 0.13 0.07 0.03 0.02 0.01 0.02 0.09 0.07 0.21 0.36 0.39 0.11 0.07 0.19 0.22 0.27 0.16 0.06 0.05 0.01 0.00 0.00 0.00 0.00 0.00 0.00 0.00 0.00 0.00 0.01 0.01 0.01 0.01 0.01 0.01 0.01
0.36 0.19 0.19 0.20 0.23 0.31 0.27 0.34 0.26 0.34 0.64 0.66 0.65 0.51 0.38 0.27 0.05 0.04 0.02 0.01 0.01 0.01 0.00 0.01 0.02 0.02 0.13 0.24 0.31 0.15 0.08 0.08 0.17 0.07 0.04 0.05 0.03 0.01 0.00 0.00 0.00 0.00 0.00 0.00 0.00 0.00 0.00 0.00 0.01 0.01 0.01 0.01 0.00 0.01
0.31 0.30 0.31 0.25 0.29 0.27 0.33 0.46 0.42 0.38 0.44 0.41 0.31 0.18 0.05 0.05 0.07 0.07 0.03 0.02 0.02 0.01 0.01 0.02 0.01 0.02 0.06 0.11 0.04 0.04 0.04 0.04 0.02 0.04 0.03 0.03 0.01 0.01 0.00 0.00 0.00 0.00 0.00 0.00 0.00 0.00 0.00 0.00 0.00 0.01 0.01 0.01 0.00 0.01
0.44 0.65 0.50 0.32 0.27 0.25 0.33 0.39 0.42 0.32 0.20 0.15 0.13 0.10 0.10 0.04 0.08 0.06 0.05 0.05 0.06 0.07 0.03 0.03 0.03 0.04 0.04 0.05 0.03 0.02 0.04 0.06 0.06 0.02 0.02 0.01 0.01 0.00 0.01 0.00 0.00 0.00 0.00 0.00 0.00 0.00 0.00 0.00 0.00 0.01 0.01 0.01 0.01 0.01
0.49 0.59 0.45 0.28 0.23 0.23 0.21 0.25 0.24 0.23 0.17 0.09 0.07 0.05 0.04 0.05 0.07 0.08 0.08 0.06 0.06 0.06 0.03 0.04 0.02 0.01 0.02 0.01 0.01 0.02 0.02 0.02 0.02 0.02 0.01 0.00 0.00 0.00 0.00 0.00 0.01 0.00 0.00 0.01 0.01 0.01 0.00 0.00 0.00 0.00 0.02 0.01 0.01 0.01
0.40 0.30 0.16 0.13 0.17 0.24 0.25 0.18 0.11 0.10 0.08 0.06 0.04 0.07 0.03 0.06 0.07 0.06 0.04 0.01 0.02 0.04 0.04 0.03 0.03 0.00 0.01 0.01 0.02 0.02 0.04 0.04 0.02 0.02 0.01 0.01 0.01 0.01 0.00 0.00 0.00 0.00 0.01 0.01 0.01 0.01 0.02 0.01 0.01 0.01 0.01 0.01 0.02 0.01
0.32 0.17 0.08 0.07 0.06 0.09 0.16 0.10 0.04 0.05 0.05 0.04 0.06 0.05 0.02 0.03 0.03 0.02 0.01 0.00 0.00 0.01 0.01 0.00 0.00 0.01 0.02 0.01 0.01 0.01 0.01 0.01 0.03 0.02 0.01 0.01 0.00 0.00 0.00 0.00 0.00 0.01 0.01 0.02 0.01 0.02 0.03 0.04 0.04 0.04 0.04 0.04 0.03 0.02
0.20 0.10 0.10 0.10 0.10 0.09 0.12 0.05 0.00 0.01 0.02 0.03 0.03 0.03 0.03 0.03 0.02 0.02 0.01 0.00 0.00 0.00 0.00 0.01 0.03 0.04 0.03 0.02 0.00 0.01 0.00 0.00 0.00 0.01 0.03 0.02 0.01 0.01 0.02 0.02 0.01 0.01 0.01 0.02 0.02 0.04 0.03 0.03 0.02 0.02 0.03 0.03 0.03 0.03
0.17 0.13 0.17 0.17 0.10 0.10 0.13 0.02 0.00 0.00 0.00 0.01 0.01 0.00 0.02 0.02 0.03 0.03 0.02 0.00 0.01 0.01 0.02 0.03 0.04 0.05 0.01 0.00 0.00 0.00 0.02 0.02 0.02 0.00 0.01 0.02 0.02 0.00 0.00 0.01 0.02 0.04 0.03 0.02 0.01 0.02 0.02 0.01 0.01 0.00 0.00 0.00 0.01 0.01
0.12 0.11 0.21 0.17 0.06 0.05 0.10 0.01 0.00 0.00 0.01 0.02 0.01 0.01 0.03 0.04 0.03 0.02 0.00 0.02 0.04 0.04 0.02 0.01 0.01 0.01 0.00 0.00 0.00 0.00 0.00 0.00 0.00 0.00 0.00 0.00 0.02 0.01 0.00 0.01 0.01 0.01 0.02 0.02 0.01 0.01 0.01 0.00 0.00 0.00 0.00 0.01 0.01 0.01
0.02 0.04 0.10 0.09 0.02 0.02 0.06 0.01 0.00 0.00 0.01 0.02 0.00 0.00 0.01 0.01 0.01 0.00 0.01 0.01 0.04 0.03 0.01 0.00 0.00 0.00 0.00 0.00 0.00 0.00 0.00 0.00 0.00 0.00 0.00 0.00 0.00 0.00 0.00 0.00 0.00 0.00 0.00 0.00 0.00 0.00 0.00 0.00 0.00 0.00 0.00 0.00 0.01 0.01
0.01 0.04 0.05 0.04 0.00 0.01 0.00 0.00 0.00 0.00 0.00 0.00 0.00 0.00 0.00 0.00 0.00 0.00 0.01 0.01 0.03 0.02 0.00 0.00 0.00 0.00 0.00 0.00 0.00 0.00 0.00 0.00 0.00 0.00 0.00 0.00 0.00 0.00 0.00 0.00 0.00 0.00 0.00 0.00 0.00 0.00 0.00 0.00 0.00 0.00 0.01 0.01 0.01 0.02
0.02 0.01 0.00 0.00 0.00 0.00 0.00 0.00 0.00 0.00 0.00 0.00 0.00 0.00 0.00 0.00 0.00 0.00 0.00 0.02 0.03 0.02 0.01 0.00 0.00 0.00 0.00 0.00 0.00 0.00 0.00 0.00 0.00 0.00 0.00 0.00 0.00 0.00 0.00 0.00 0.00 0.00 0.00 0.01 0.01 0.00 0.00 0.00 0.00 0.00 0.00 0.01 0.01 0.01
0.03 0.02 0.01 0.00 0.00 0.00 0.00 0.00 0.00 0.00 0.00 0.00 0.00 0.00 0.00 0.00 0.00 0.01 0.01 0.01 0.01 0.02 0.01 0.00 0.01 0.00 0.00 0.00 0.00 0.00 0.00 0.00 0.00 0.00 0.00 0.00 0.00 0.00 0.00 0.00 0.00 0.00 0.00 0.00 0.00 0.01 0.01 0.01 0.01 0.01 0.01 0.00 0.00 0.00
0.01 0.01 0.00 0.00 0.00 0.00 0.00 0.00 0.00 0.00 0.00 0.00 0.00 0.01 0.00 0.00 0.00 0.03 0.04 0.02 0.01 0.01 0.00 0.00 0.00 0.00 0.00 0.00 0.00 0.00 0.00 0.00 0.00 0.00 0.00 0.00 0.00 0.00 0.00 0.00 0.00 0.00 0.00 0.00 0.00 0.00 0.00 0.00 0.00 0.00 0.01 0.01 0.01 0.01
0.00 0.00 0.00 0.00 0.00 0.00 0.00 0.00 0.00 0.00 0.01 0.01 0.00 0.00 0.00 0.00 0.04 0.07 0.07 0.04 0.05 0.02 0.01 0.00 0.00 0.00 0.00 0.00 0.00 0.00 0.00 0.00 0.00 0.00 0.00 0.00 0.00 0.00 0.00 0.00 0.00 0.00 0.00 0.00 0.00 0.00 0.00 0.00 0.00 0.01 0.01 0.01 0.01 0.01
0.00 0.00 0.00 0.00 0.00 0.00 0.01 0.01 0.01 0.01 0.01 0.01 0.01 0.01 0.02 0.05 0.08 0.08 0.05 0.06 0.03 0.00 0.01 0.01 0.01 0.00 0.00 0.00 0.00 0.00 0.00 0.00 0.00 0.00 0.00 0.01 0.01 0.00 0.00 0.00 0.00 0.00 0.00 0.00 0.00 0.00 0.00 0.00 0.00 0.00 0.00 0.00 0.01 0.01
0.00 0.00 0.00 0.00 0.00 0.01 0.04 0.04 0.03 0.02 0.01 0.01 0.01 0.02 0.04 0.13 0.19 0.09 0.06 0.07 0.06 0.04 0.01 0.00 0.00 0.00 0.00 0.00 0.01 0.00 0.00 0.00 0.00 0.00 0.00 0.00 0.00 0.00 0.00 0.00 0.00 0.00 0.00 0.00 0.01 0.00 0.01 0.00 0.00 0.00 0.00 0.01 0.01 0.01
0.00 0.00 0.00 0.00 0.02 0.04 0.06 0.04 0.02 0.01 0.01 0.01 0.00 0.01 0.04 0.11 0.15 0.17 0.11 0.10 0.08 0.02 0.01 0.02 0.01 0.00 0.00 0.00 0.00 0.00 0.00 0.00 0.00 0.00 0.00 0.00 0.00 0.00 0.00 0.00 0.00 0.00 0.00 0.00 0.00 0.00 0.00 0.00 0.00 0.00 0.00 0.00 0.00 0.00
0.00 0.00 0.00 0.00 0.03 0.03 0.05 0.03 0.02 0.02 0.02 0.01 0.02 0.01 0.01 0.02 0.03 0.07 0.11 0.10 0.09 0.05 0.03 0.01 0.01 0.02 0.01 0.00 0.00 0.00 0.00 0.00 0.00 0.00 0.00 0.00 0.00 0.00 0.00 0.00 0.00 0.00 0.00 0.00 0.00 0.00 0.00 0.00 0.00 0.00 0.00 0.00 0.00 0.00
0.00 0.00 0.00 0.00 0.01 0.02 0.02 0.02 0.01 0.02 0.02 0.02 0.03 0.04 0.03 0.01 0.03 0.05 0.07 0.07 0.12 0.07 0.04 0.02 0.01 0.00 0.00 0.00 0.00 0.00 0.00 0.00 0.00 0.00 0.00 0.00 0.00 0.00 0.00 0.00 0.00 0.00 0.00 0.00 0.00 0.00 0.00 0.00 0.00 0.00 0.00 0.00 0.00 0.00

GFSWCAN_prec_precacc24_111.txt.gz
Total_Precipitation_Accumulation
0.21 0.12 0.07 0.05 0.04 0.04 0.05 0.06 0.06 0.06 0.05 0.03 0.05 0.07 0.10 0.13 0.20 0.18 0.13 0.01 0.04 0.04 0.01 0.00 0.00 0.00 0.01 0.01 0.04 0.01 0.01 0.03 0.16 0.05 0.02 0.01 0.02 0.02 0.11 0.05 0.08 0.07 0.14 0.04 0.04 0.09 0.07 0.00 0.01 0.05 0.08 0.05 0.04 0.04
0.24 0.13 0.09 0.06 0.05 0.04 0.04 0.05 0.04 0.06 0.06 0.06 0.06 0.07 0.11 0.16 0.20 0.32 0.25 0.04 0.03 0.07 0.01 0.00 0.00 0.00 0.00 0.00 0.01 0.01 0.08 0.12 0.19 0.26 0.15 0.06 0.06 0.04 0.04 0.33 0.12 0.24 0.10 0.06 0.06 0.12 0.19 0.07 0.05 0.06 0.03 0.07 0.08 0.07
0.24 0.16 0.09 0.07 0.06 0.05 0.04 0.04 0.05 0.06 0.06 0.07 0.06 0.07 0.08 0.12 0.25 0.42 0.32 0.06 0.27 0.21 0.03 0.00 0.02 0.00 0.00 0.00 0.00 0.01 0.15 0.24 0.32 0.33 0.30 0.21 0.12 0.06 0.06 0.16 0.21 0.39 0.42 0.29 0.35 0.44 0.20 0.12 0.12 0.09 0.09 0.19 0.20 0.13
0.24 0.20 0.12 0.07 0.06 0.06 0.06 0.07 0.07 0.06 0.08 0.10 0.09 0.08 0.06 0.10 0.19 0.49 0.56 0.17 0.18 0.21 0.04 0.04 0.01 0.00 0.00 0.00 0.00 0.00 0.01 0.04 0.11 0.17 0.13 0.05 0.07 0.05 0.05 0.18 0.24 0.18 0.43 0.64 0.70 0.50 0.32 0.21 0.27 0.36 0.34 0.16 0.14 0.17
0.17 0.18 0.15 0.09 0.07 0.05 0.04 0.03 0.04 0.05 0.05 0.05 0.07 0.08 0.09 0.13 0.23 0.46 0.51 0.19 0.10 0.17 0.13 0.06 0.04 0.01 0.00 0.00 0.00 0.00 0.00 0.00 0.02 0.03 0.05 0.08 0.07 0.06 0.09 0.28 0.22 0.11 0.24 0.54 0.85 0.73 0.61 0.51 0.37 0.31 0.28 0.25 0.13 0.05
0.08 0.11 0.12 0.10 0.09 0.06 0.04 0.04 0.04 0.05 0.05 0.04 0.05 0.08 0.13 0.22 0.37 0.76 1.32 0.51 0.12 0.37 0.35 0.09 0.10 0.04 0.00 0.00 0.00 0.00 0.01 0.02 0.01 0.04 0.04 0.06 0.07 0.27 0.39 0.43 0.22 0.14 0.17 0.28 0.50 0.79 0.77 0.62 0.41 0.24 0.15 0.08 0.03 0.00
0.05 0.06 0.10 0.08 0.07 0.06 0.04 0.04 0.05 0.07 0.09 0.10 0.10 0.13 0.22 0.46 0.49 0.41 0.41 0.20 0.12 0.34 0.48 0.13 0.08 0.02 0.01 0.00 0.00 0.00 0.01 0.05 0.09 0.06 0.04 0.05 0.09 0.22 0.43 0.26 0.20 0.20 0.26 0.34 0.36 0.42 0.31 0.19 0.12 0.05 0.01 0.00 0.00 0.00
0.05 0.04 0.08 0.09 0.07 0.04 0.04 0.03 0.04 0.06 0.09 0.10 0.12 0.20 0.36 0.78 0.94 0.50 0.12 0.06 0.23 0.58 0.34 0.09 0.06 0.05 0.03 0.02 0.02 0.01 0.02 0.03 0.06 0.07 0.05 0.04 0.10 0.14 0.10 0.07 0.03 0.05 0.08 0.13 0.16 0.12 0.12 0.08 0.01 0.00 0.00 0.00 0.00 0.00
0.07 0.04 0.05 0.08 0.08 0.06 0.05 0.04 0.06 0.10 0.15 0.16 0.25 0.65 1.33 1.58 1.33 0.48 0.17 0.11 0.19 0.54 0.29 0.04 0.03 0.14 0.10 0.07 0.05 0.04 0.03 0.06 0.06 0.05 0.03 0.10 0.11 0.11 0.07 0.01 0.01 0.01 0.01 0.01 0.01 0.02 0.04 0.03 0.01 0.00 0.00 0.00 0.00 0.01
0.07 0.06 0.05 0.09 0.09 0.10 0.10 0.09 0.09 0.19 0.35 0.50 1.18 1.88 1.94 0.82 0.37 0.65 1.26 0.96 0.75 0.52 0.16 0.02 0.03 0.18 0.25 0.08 0.06 0.03 0.06 0.08 0.15 0.06 0.07 0.12 0.06 0.07 0.02 0.00 0.00 0.00 0.00 0.00 0.00 0.00 0.01 0.01 0.01 0.00 0.00 0.00 0.01 0.01
0.10 0.09 0.07 0.09 0.14 0.12 0.12 0.10 0.13 0.24 0.54 1.13 1.33 0.94 0.57 0.42 0.46 0.90 1.02 0.71 0.38 0.20 0.06 0.00 0.02 0.12 0.38 0.19 0.09 0.07 0.10 0.11 0.05 0.10 0.21 0.14 0.06 0.05 0.02 0.00 0.00 0.00 0.00 0.00 0.00 0.01 0.01 0.02 0.01 0.00 0.00 0.00 0.00 0.01
0.16 0.17 0.17 0.18 0.20 0.21 0.25 0.19 0.20 0.37 0.69 0.53 0.47 0.84 1.41 1.00 0.88 0.85 0.48 0.22 0.03 0.00 0.00 0.01 0.03 0.09 0.39 0.40 0.24 0.13 0.12 0.20 0.12 0.28 0.20 0.06 0.07 0.03 0.00 0.00 0.00 0.00 0.00 0.00 0.00 0.00 0.00 0.01 0.00 0.00 0.00 0.00 0.01 0.01
0.36 0.27 0.18 0.22 0.24 0.30 0.31 0.22 0.18 0.21 0.44 0.51 0.66 0.93 1.26 0.82 0.53 0.24 0.15 0.06 0.01 0.01 0.01 0.02 0.09 0.09 0.22 0.34 0.33 0.11 0.06 0.18 0.21 0.24 0.14 0.04 0.03 0.01 0.00 0.00 0.00 0.00 0.00 0.00 0.00 0.00 0.00 0.01 0.00 0.00 0.00 0.01 0.00 0.00
0.36 0.19 0.19 0.20 0.23 0.31 0.26 0.34 0.26 0.36 0.65 0.67 0.74 0.58 0.41 0.29 0.05 0.02 0.01 0.01 0.01 0.00 0.00 0.01 0.02 0.02 0.13 0.23 0.27 0.14 0.07 0.07 0.11 0.05 0.04 0.03 0.02 0.01 0.00 0.00 0.00 0.00 0.00 0.00 0.00 0.00 0.00 0.00 0.00 0.01 0.00 0.00 0.00 0.00
0.30 0.29 0.31 0.26 0.31 0.29 0.34 0.47 0.42 0.41 0.46 0.44 0.38 0.24 0.05 0.06 0.05 0.07 0.05 0.03 0.02 0.00 0.01 0.01 0.01 0.02 0.05 0.11 0.04 0.04 0.04 0.04 0.02 0.03 0.02 0.01 0.01 0.01 0.00 0.00 0.00 0.00 0.00 0.00 0.00 0.00 0.00 0.00 0.00 0.01 0.01 0.00 0.00 0.00
0.44 0.65 0.51 0.34 0.30 0.28 0.36 0.42 0.44 0.36 0.22 0.16 0.13 0.11 0.11 0.03 0.06 0.05 0.06 0.09 0.05 0.05 0.03 0.03 0.03 0.03 0.02 0.05 0.03 0.01 0.03 0.05 0.05 0.01 0.01 0.01 0.01 0.00 0.00 0.00 0.00 0.00 0.00 0.00 0.00 0.00 0.00 0.00 0.00 0.00 0.01 0.00 0.00 0.00
0.49 0.60 0.46 0.31 0.27 0.28 0.24 0.25 0.26 0.26 0.18 0.09 0.07 0.04 0.04 0.04 0.06 0.06 0.07 0.10 0.11 0.06 0.02 0.05 0.03 0.01 0.02 0.01 0.01 0.02 0.01 0.01 0.01 0.02 0.01 0.00 0.00 0.00 0.00 0.00 0.00 0.00 0.00 0.00 0.00 0.00 0.00 0.00 0.00 0.00 0.01 0.01 0.01 0.00
0.40 0.32 0.18 0.15 0.21 0.27 0.26 0.18 0.13 0.11 0.08 0.05 0.04 0.06 0.02 0.05 0.07 0.05 0.04 0.03 0.07 0.05 0.05 0.05 0.08 0.02 0.01 0.01 0.03 0.02 0.02 0.02 0.01 0.01 0.01 0.01 0.00 0.00 0.00 0.00 0.00 0.00 0.00 0.00 0.00 0.00 0.01 0.00 0.01 0.01 0.00 0.01 0.01 0.01
0.36 0.20 0.10 0.09 0.08 0.10 0.16 0.10 0.05 0.07 0.04 0.03 0.05 0.04 0.02 0.03 0.03 0.02 0.01 0.00 0.01 0.02 0.02 0.00 0.02 0.03 0.02 0.01 0.01 0.01 0.01 0.01 0.03 0.02 0.01 0.01 0.00 0.00 0.00 0.00 0.00 0.01 0.01 0.01 0.01 0.01 0.02 0.03 0.03 0.03 0.03 0.03 0.03 0.02
0.24 0.12 0.10 0.10 0.12 0.12 0.13 0.06 0.00 0.02 0.02 0.02 0.02 0.03 0.02 0.02 0.02 0.02 0.01 0.00 0.00 0.00 0.00 0.00 0.01 0.02 0.01 0.00 0.00 0.00 0.00 0.00 0.00 0.01 0.03 0.01 0.01 0.00 0.00 0.00 0.00 0.00 0.01 0.01 0.02 0.03 0.02 0.03 0.02 0.02 0.02 0.03 0.03 0.03
0.22 0.17 0.19 0.19 0.13 0.19 0.16 0.03 0.00 0.00 0.00 0.02 0.01 0.00 0.02 0.02 0.03 0.04 0.02 0.00 0.02 0.01 0.02 0.02 0.03 0.03 0.01 0.00 0.00 0.00 0.00 0.00 0.00 0.00 0.01 0.01 0.01 0.00 0.00 0.01 0.02 0.02 0.02 0.01 0.01 0.02 0.01 0.01 0.01 0.00 0.00 0.00 0.01 0.01
0.15 0.13 0.26 0.19 0.11 0.08 0.14 0.02 0.00 0.00 0.01 0.02 0.02 0.02 0.03 0.05 0.04 0.03 0.01 0.03 0.04 0.03 0.01 0.01 0.01 0.01 0.00 0.00 0.00 0.00 0.00 0.00 0.00 0.00 0.00 0.00 0.01 0.00 0.01 0.01 0.01 0.01 0.02 0.02 0.01 0.01 0.01 0.00 0.00 0.00 0.00 0.00 0.00 0.01
0.04 0.08 0.15 0.12 0.08 0.05 0.13 0.03 0.02 0.01 0.01 0.03 0.01 0.01 0.02 0.02 0.01 0.00 0.02 0.02 0.04 0.02 0.00 0.00 0.00 0.00 0.00 0.00 0.00 0.00 0.00 0.00 0.00 0.00 0.00 0.00 0.00 0.00 0.00 0.00 0.00 0.00 0.00 0.00 0.00 0.00 0.00 0.00 0.00 0.00 0.00 0.00 0.01 0.01
0.03 0.13 0.17 0.12 0.05 0.03 0.05 0.08 0.04 0.02 0.02 0.02 0.03 0.01 0.01 0.00 0.00 0.00 0.02 0.01 0.03 0.02 0.00 0.00 0.00 0.00 0.00 0.00 0.00 0.00 0.00 0.00 0.00 0.00 0.00 0.00 0.00 0.00 0.00 0.00 0.00 0.00 0.00 0.00 0.00 0.00 0.00 0.00 0.00 0.00 0.01 0.01 0.01 0.02
0.11 0.11 0.15 0.10 0.03 0.02 0.02 0.02 0.02 0.01 0.01 0.01 0.01 0.00 0.00 0.00 0.01 0.01 0.01 0.02 0.02 0.02 0.01 0.00 0.00 0.00 0.00 0.00 0.00 0.00 0.00 0.00 0.00 0.00 0.00 0.00 0.00 0.00 0.00 0.00 0.00 0.00 0.00 0.00 0.00 0.00 0.00 0.00 0.00 0.00 0.00 0.01 0.01 0.01
0.14 0.10 0.05 0.03 0.01 0.01 0.01 0.00 0.00 0.00 0.00 0.00 0.00 0.00 0.00 0.00 0.01 0.02 0.02 0.03 0.01 0.01 0.01 0.00 0.00 0.00 0.00 0.00 0.00 0.00 0.00 0.00 0.00 0.00 0.00 0.00 0.00 0.00 0.00 0.00 0.00 0.00 0.00 0.00 0.00 0.01 0.01 0.01 0.01 0.01 0.01 0.00 0.00 0.00
0.05 0.04 0.00 0.00 0.00 0.00 0.00 0.00 0.00 0.00 0.00 0.00 0.01 0.01 0.00 0.00 0.01 0.03 0.03 0.04 0.04 0.01 0.00 0.00 0.00 0.00 0.00 0.00 0.00 0.00 0.00 0.00 0.00 0.00 0.00 0.00 0.00 0.00 0.00 0.00 0.00 0.00 0.00 0.00 0.00 0.00 0.00 0.00 0.00 0.00 0.01 0.01 0.01 0.01
0.02 0.02 0.02 0.02 0.01 0.00 0.01 0.00 0.00 0.00 0.01 0.01 0.01 0.00 0.00 0.01 0.04 0.07 0.05 0.04 0.09 0.03 0.02 0.01 0.00 0.00 0.00 0.00 0.00 0.00 0.00 0.00 0.00 0.00 0.00 0.00 0.00 0.00 0.00 0.00 0.00 0.00 0.00 0.00 0.00 0.00 0.00 0.00 0.00 0.01 0.01 0.01 0.01 0.01
0.04 0.02 0.01 0.01 0.01 0.00 0.01 0.01 0.01 0.01 0.01 0.02 0.02 0.01 0.02 0.04 0.07 0.07 0.05 0.09 0.06 0.01 0.01 0.02 0.03 0.00 0.00 0.00 0.00 0.00 0.00 0.00 0.00 0.00 0.00 0.00 0.00 0.00 0.00 0.00 0.00 0.00 0.00 0.00 0.00 0.00 0.00 0.00 0.00 0.00 0.00 0.00 0.01 0.01
0.01 0.01 0.00 0.00 0.00 0.01 0.04 0.04 0.03 0.03 0.01 0.01 0.00 0.02 0.03 0.10 0.17 0.09 0.07 0.08 0.07 0.04 0.02 0.01 0.01 0.00 0.01 0.01 0.01 0.01 0.01 0.00 0.00 0.00 0.00 0.00 0.00 0.00 0.00 0.00 0.00 0.00 0.00 0.00 0.00 0.00 0.00 0.00 0.00 0.00 0.00 0.00 0.01 0.01
0.00 0.00 0.00 0.00 0.02 0.04 0.05 0.03 0.02 0.01 0.01 0.01 0.01 0.01 0.04 0.10 0.13 0.14 0.09 0.13 0.12 0.03 0.01 0.02 0.03 0.01 0.01 0.00 0.00 0.00 0.00 0.00 0.00 0.00 0.00 0.00 0.00 0.00 0.00 0.00 0.00 0.00 0.00 0.00 0.00 0.00 0.00 0.00 0.00 0.00 0.00 0.00 0.00 0.00
0.00 0.00 0.00 0.00 0.03 0.03 0.03 0.04 0.03 0.02 0.02 0.01 0.02 0.01 0.02 0.03 0.03 0.07 0.11 0.11 0.13 0.07 0.05 0.03 0.03 0.04 0.01 0.01 0.00 0.00 0.00 0.00 0.00 0.00 0.00 0.00 0.00 0.00 0.00 0.00 0.00 0.00 0.00 0.00 0.00 0.00 0.00 0.00 0.00 0.00 0.00 0.00 0.00 0.00
0.00 0.00 0.00 0.00 0.01 0.02 0.02 0.02 0.01 0.01 0.02 0.02 0.03 0.04 0.03 0.02 0.03 0.05 0.08 0.09 0.13 0.08 0.05 0.02 0.02 0.01 0.00 0.00 0.00 0.00 0.00 0.00 0.00 0.00 0.00 0.00 0.00 0.00 0.00 0.00 0.00 0.00 0.00 0.00 0.00 0.00 0.00 0.00 0.00 0.00 0.00 0.00 0.00 0.00

GFSWCAN_prec_precacc24_114.txt.gz
Total_Precipitation_Accumulation
0.22 0.16 0.11 0.08 0.07 0.05 0.05 0.06 0.07 0.06 0.04 0.02 0.02 0.05 0.08 0.11 0.17 0.15 0.10 0.00 0.04 0.04 0.01 0.00 0.00 0.00 0.00 0.00 0.01 0.00 0.00 0.01 0.02 0.02 0.02 0.01 0.02 0.03 0.12 0.04 0.03 0.02 0.12 0.04 0.04 0.07 0.07 0.01 0.01 0.06 0.12 0.08 0.06 0.05
0.25 0.14 0.12 0.09 0.07 0.05 0.04 0.05 0.05 0.06 0.04 0.03 0.02 0.04 0.08 0.13 0.16 0.27 0.20 0.04 0.03 0.07 0.01 0.00 0.00 0.00 0.00 0.00 0.00 0.00 0.02 0.07 0.10 0.15 0.12 0.05 0.05 0.03 0.03 0.31 0.03 0.11 0.08 0.06 0.06 0.12 0.17 0.05 0.06 0.06 0.03 0.07 0.07 0.06
0.29 0.17 0.10 0.08 0.07 0.05 0.04 0.04 0.04 0.06 0.05 0.05 0.04 0.05 0.05 0.09 0.21 0.33 0.24 0.05 0.19 0.16 0.02 0.00 0.02 0.00 0.00 0.00 0.00 0.01 0.04 0.16 0.22 0.20 0.27 0.20 0.11 0.05 0.05 0.10 0.08 0.16 0.26 0.26 0.32 0.42 0.19 0.10 0.09 0.07 0.06 0.16 0.18 0.13
0.32 0.26 0.14 0.08 0.06 0.04 0.04 0.04 0.05 0.06 0.07 0.08 0.07 0.07 0.05 0.06 0.15 0.42 0.41 0.09 0.12 0.16 0.04 0.04 0.01 0.00 0.00 0.00 0.00 0.00 0.01 0.02 0.09 0.10 0.07 0.05 0.07 0.04 0.04 0.12 0.07 0.12 0.23 0.47 0.63 0.45 0.29 0.17 0.18 0.25 0.29 0.15 0.13 0.16
0.25 0.30 0.21 0.11 0.07 0.04 0.03 0.03 0.04 0.05 0.05 0.06 0.06 0.07 0.07 0.10 0.17 0.38 0.38 0.12 0.07 0.14 0.12 0.06 0.04 0.01 0.00 0.00 0.00 0.00 0.00 0.00 0.01 0.03 0.05 0.08 0.07 0.03 0.05 0.17 0.10 0.09 0.15 0.25 0.54 0.53 0.41 0.34 0.28 0.21 0.20 0.23 0.13 0.05
0.15 0.25 0.21 0.13 0.10 0.07 0.04 0.04 0.03 0.05 0.05 0.05 0.05 0.06 0.12 0.19 0.30 0.55 1.08 0.39 0.09 0.27 0.30 0.09 0.10 0.05 0.00 0.00 0.00 0.00 0.00 0.01 0.01 0.04 0.04 0.06 0.05 0.02 0.16 0.36 0.16 0.13 0.13 0.18 0.25 0.47 0.56 0.48 0.36 0.23 0.15 0.08 0.03 0.00
0.09 0.17 0.20 0.11 0.08 0.07 0.04 0.04 0.04 0.05 0.07 0.07 0.08 0.11 0.18 0.43 0.41 0.32 0.37 0.21 0.11 0.22 0.40 0.12 0.08 0.02 0.00 0.00 0.00 0.00 0.00 0.04 0.09 0.06 0.04 0.05 0.08 0.13 0.27 0.21 0.14 0.13 0.17 0.21 0.27 0.37 0.30 0.19 0.12 0.05 0.01 0.00 0.00 0.00
0.07 0.10 0.15 0.11 0.08 0.05 0.04 0.03 0.04 0.05 0.06 0.08 0.10 0.16 0.31 0.74 0.88 0.42 0.11 0.08 0.19 0.36 0.28 0.08 0.06 0.02 0.00 0.01 0.01 0.00 0.01 0.02 0.05 0.06 0.05 0.04 0.08 0.12 0.08 0.06 0.02 0.01 0.05 0.09 0.13 0.10 0.11 0.08 0.01 0.00 0.00 0.00 0.00 0.00
0.08 0.06 0.07 0.08 0.08 0.06 0.05 0.04 0.04 0.08 0.09 0.09 0.17 0.48 1.07 1.44 1.26 0.42 0.13 0.12 0.17 0.49 0.28 0.04 0.03 0.08 0.02 0.04 0.03 0.03 0.03 0.04 0.03 0.04 0.03 0.08 0.07 0.06 0.03 0.00 0.01 0.01 0.01 0.00 0.01 0.02 0.04 0.03 0.01 0.00 0.00 0.00 0.00 0.00
0.08 0.06 0.05 0.09 0.09 0.10 0.10 0.08 0.08 0.15 0.20 0.30 0.95 1.65 1.74 0.76 0.35 0.51 1.05 0.78 0.67 0.53 0.16 0.02 0.03 0.06 0.03 0.04 0.04 0.02 0.05 0.07 0.13 0.05 0.05 0.08 0.04 0.04 0.01 0.00 0.00 0.00 0.00 0.00 0.00 0.00 0.00 0.01 0.00 0.00 0.00 0.00 0.00 0.01
0.09 0.07 0.07 0.09 0.13 0.11 0.11 0.09 0.11 0.22 0.51 1.08 1.26 0.89 0.49 0.35 0.40 0.82 0.94 0.70 0.38 0.21 0.06 0.00 0.01 0.05 0.11 0.09 0.06 0.06 0.07 0.07 0.05 0.09 0.14 0.08 0.05 0.03 0.01 0.00 0.00 0.00 0.00 0.00 0.00 0.00 0.01 0.01 0.01 0.00 0.00 0.00 0.00 0.00
0.13 0.16 0.14 0.14 0.16 0.15 0.19 0.14 0.16 0.32 0.64 0.51 0.44 0.68 1.26 0.93 0.86 0.89 0.50 0.23 0.03 0.00 0.00 0.00 0.01 0.05 0.31 0.33 0.18 0.09 0.11 0.19 0.11 0.22 0.15 0.04 0.05 0.01 0.00 0.00 0.00 0.00 0.00 0.00 0.00 0.00 0.00 0.01 0.00 0.00 0.00 0.00 0.01 0.01
0.32 0.25 0.16 0.19 0.19 0.26 0.27 0.17 0.16 0.23 0.44 0.51 0.70 0.93 1.26 0.81 0.52 0.25 0.17 0.05 0.00 0.01 0.01 0.01 0.03 0.05 0.22 0.34 0.31 0.09 0.05 0.17 0.20 0.18 0.10 0.03 0.02 0.01 0.00 0.00 0.00 0.00 0.00 0.00 0.00 0.00 0.00 0.00 0.00 0.00 0.00 0.00 0.00 0.00
0.34 0.18 0.18 0.21 0.24 0.32 0.25 0.35 0.28 0.38 0.65 0.67 0.75 0.61 0.42 0.29 0.05 0.01 0.01 0.01 0.01 0.00 0.00 0.01 0.02 0.02 0.13 0.20 0.21 0.14 0.07 0.06 0.06 0.04 0.03 0.02 0.01 0.01 0.00 0.00 0.00 0.00 0.00 0.00 0.00 0.00 0.00 0.00 0.00 0.00 0.00 0.00 0.00 0.00
0.28 0.28 0.31 0.26 0.32 0.30 0.34 0.47 0.43 0.41 0.46 0.44 0.40 0.26 0.05 0.05 0.04 0.06 0.05 0.03 0.02 0.00 0.01 0.01 0.01 0.02 0.05 0.11 0.04 0.04 0.05 0.04 0.02 0.03 0.02 0.01 0.01 0.00 0.00 0.00 0.00 0.00 0.00 0.00 0.00 0.00 0.00 0.00 0.00 0.00 0.01 0.00 0.00 0.00
0.44 0.65 0.50 0.32 0.33 0.31 0.38 0.43 0.44 0.38 0.22 0.17 0.14 0.14 0.11 0.03 0.04 0.04 0.06 0.11 0.07 0.04 0.03 0.03 0.03 0.03 0.02 0.04 0.03 0.01 0.03 0.05 0.05 0.01 0.01 0.01 0.00 0.00 0.00 0.00 0.00 0.00 0.00 0.00 0.00 0.00 0.00 0.00 0.00 0.00 0.00 0.00 0.00 0.00
0.48 0.59 0.47 0.33 0.31 0.30 0.24 0.25 0.26 0.27 0.18 0.09 0.07 0.07 0.07 0.05 0.05 0.05 0.05 0.12 0.16 0.08 0.02 0.05 0.03 0.01 0.02 0.02 0.00 0.01 0.01 0.01 0.01 0.01 0.00 0.00 0.00 0.00 0.00 0.00 0.00 0.00 0.00 0.00 0.00 0.00 0.00 0.00 0.00 0.00 0.01 0.00 0.00 0.00
0.40 0.32 0.20 0.21 0.26 0.28 0.26 0.18 0.13 0.12 0.08 0.04 0.03 0.05 0.03 0.05 0.06 0.04 0.04 0.05 0.11 0.06 0.06 0.06 0.08 0.02 0.01 0.01 0.03 0.01 0.01 0.02 0.01 0.01 0.00 0.00 0.00 0.00 0.00 0.00 0.00 0.00 0.00 0.00 0.00 0.00 0.00 0.00 0.01 0.01 0.00 0.01 0.01 0.00
0.36 0.22 0.14 0.15 0.09 0.10 0.17 0.10 0.06 0.08 0.04 0.02 0.04 0.04 0.02 0.02 0.03 0.02 0.01 0.00 0.04 0.05 0.03 0.00 0.02 0.03 0.02 0.01 0.01 0.01 0.01 0.01 0.03 0.02 0.01 0.01 0.00 0.00 0.00 0.00 0.00 0.00 0.00 0.00 0.00 0.01 0.01 0.01 0.02 0.02 0.01 0.02 0.02 0.01
0.28 0.14 0.11 0.11 0.13 0.13 0.14 0.06 0.00 0.03 0.02 0.02 0.02 0.02 0.02 0.02 0.02 0.02 0.01 0.00 0.00 0.01 0.02 0.00 0.00 0.01 0.01 0.00 0.00 0.00 0.00 0.00 0.00 0.01 0.03 0.02 0.01 0.00 0.00 0.00 0.00 0.00 0.01 0.01 0.01 0.02 0.01 0.02 0.01 0.01 0.01 0.02 0.03 0.03
0.27 0.20 0.21 0.19 0.14 0.20 0.17 0.03 0.00 0.00 0.00 0.02 0.01 0.01 0.02 0.02 0.04 0.04 0.02 0.01 0.03 0.04 0.02 0.01 0.01 0.01 0.00 0.00 0.00 0.00 0.00 0.00 0.00 0.00 0.01 0.02 0.01 0.00 0.00 0.01 0.01 0.01 0.01 0.01 0.01 0.01 0.01 0.01 0.00 0.00 0.00 0.00 0.01 0.01
0.17 0.19 0.35 0.21 0.15 0.11 0.16 0.03 0.01 0.00 0.01 0.02 0.02 0.01 0.03 0.05 0.04 0.03 0.01 0.04 0.05 0.02 0.01 0.01 0.01 0.00 0.00 0.00 0.00 0.00 0.00 0.00 0.00 0.00 0.00 0.00 0.01 0.00 0.00 0.01 0.01 0.01 0.01 0.01 0.01 0.01 0.01 0.00 0.00 0.00 0.00 0.00 0.00 0.01
0.04 0.08 0.16 0.12 0.09 0.06 0.14 0.05 0.03 0.01 0.01 0.03 0.02 0.02 0.02 0.02 0.01 0.00 0.02 0.03 0.03 0.01 0.00 0.00 0.00 0.00 0.00 0.00 0.00 0.00 0.00 0.00 0.00 0.00 0.00 0.00 0.00 0.00 0.00 0.00 0.00 0.00 0.00 0.00 0.00 0.00 0.00 0.00 0.00 0.00 0.00 0.00 0.01 0.01
0.04 0.15 0.18 0.12 0.06 0.04 0.06 0.10 0.05 0.03 0.04 0.03 0.03 0.02 0.01 0.00 0.00 0.01 0.03 0.02 0.02 0.02 0.00 0.00 0.00 0.00 0.00 0.00 0.00 0.00 0.00 0.00 0.00 0.00 0.00 0.00 0.00 0.00 0.00 0.00 0.00 0.00 0.00 0.00 0.00 0.00 0.00 0.00 0.00 0.00 0.01 0.01 0.01 0.01
0.12 0.13 0.16 0.11 0.05 0.03 0.02 0.03 0.05 0.02 0.02 0.01 0.03 0.01 0.01 0.00 0.01 0.01 0.01 0.02 0.02 0.02 0.01 0.00 0.00 0.00 0.00 0.00 0.00 0.00 0.00 0.00 0.00 0.00 0.00 0.00 0.00 0.00 0.00 0.00 0.00 0.00 0.00 0.00 0.00 0.00 0.00 0.00 0.00 0.00 0.00 0.01 0.01 0.01
0.18 0.12 0.07 0.05 0.02 0.01 0.01 0.01 0.01 0.00 0.00 0.01 0.01 0.01 0.00 0.01 0.01 0.02 0.03 0.04 0.02 0.01 0.01 0.00 0.00 0.00 0.00 0.00 0.00 0.00 0.00 0.00 0.00 0.00 0.00 0.00 0.00 0.00 0.00 0.00 0.00 0.00 0.00 0.00 0.00 0.00 0.01 0.01 0.01 0.01 0.01 0.00 0.00 0.00
0.12 0.09 0.02 0.01 0.01 0.02 0.01 0.01 0.00 0.00 0.00 0.00 0.01 0.01 0.00 0.01 0.01 0.03 0.03 0.05 0.06 0.01 0.00 0.00 0.00 0.00 0.00 0.00 0.00 0.00 0.00 0.00 0.00 0.00 0.00 0.00 0.00 0.00 0.00 0.00 0.00 0.00 0.00 0.00 0.00 0.00 0.00 0.00 0.00 0.00 0.01 0.00 0.01 0.01
0.06 0.05 0.05 0.07 0.05 0.02 0.01 0.01 0.00 0.01 0.01 0.01 0.01 0.01 0.01 0.01 0.04 0.06 0.05 0.05 0.13 0.04 0.03 0.02 0.00 0.00 0.00 0.00 0.00 0.00 0.00 0.00 0.00 0.00 0.00 0.00 0.00 0.00 0.00 0.00 0.00 0.00 0.00 0.00 0.00 0.00 0.00 0.00 0.00 0.01 0.01 0.01 0.01 0.01
0.07 0.07 0.06 0.07 0.07 0.05 0.04 0.02 0.01 0.01 0.01 0.02 0.03 0.02 0.03 0.03 0.07 0.06 0.06 0.13 0.09 0.01 0.02 0.03 0.05 0.01 0.00 0.00 0.00 0.00 0.00 0.00 0.00 0.00 0.00 0.00 0.00 0.00 0.00 0.00 0.00 0.00 0.00 0.00 0.00 0.00 0.00 0.00 0.00 0.00 0.00 0.00 0.01 0.01
0.07 0.08 0.05 0.04 0.03 0.03 0.04 0.04 0.03 0.03 0.01 0.01 0.00 0.01 0.02 0.07 0.15 0.10 0.08 0.10 0.08 0.05 0.03 0.02 0.03 0.01 0.01 0.01 0.02 0.02 0.01 0.00 0.00 0.00 0.00 0.00 0.00 0.00 0.00 0.00 0.00 0.00 0.00 0.00 0.00 0.00 0.00 0.00 0.00 0.00 0.00 0.00 0.01 0.01
0.02 0.04 0.02 0.02 0.04 0.04 0.04 0.03 0.02 0.01 0.01 0.01 0.01 0.00 0.03 0.08 0.12 0.12 0.09 0.14 0.13 0.03 0.02 0.04 0.05 0.03 0.01 0.01 0.00 0.00 0.01 0.00 0.00 0.00 0.00 0.00 0.00 0.00 0.00 0.00 0.00 0.00 0.00 0.00 0.00 0.00 0.00 0.00 0.00 0.00 0.00 0.00 0.00 0.00
0.01 0.01 0.00 0.00 0.02 0.02 0.03 0.04 0.03 0.02 0.02 0.01 0.02 0.01 0.02 0.03 0.03 0.06 0.11 0.12 0.14 0.08 0.06 0.03 0.03 0.05 0.02 0.01 0.00 0.00 0.00 0.00 0.00 0.00 0.00 0.00 0.00 0.00 0.00 0.00 0.00 0.00 0.00 0.00 0.00 0.00 0.00 0.00 0.00 0.00 0.00 0.00 0.00 0.00
0.00 0.00 0.00 0.00 0.01 0.02 0.02 0.02 0.01 0.02 0.02 0.02 0.03 0.04 0.04 0.02 0.03 0.05 0.08 0.12 0.14 0.08 0.05 0.03 0.03 0.03 0.01 0.00 0.00 0.00 0.00 0.00 0.00 0.00 0.00 0.00 0.00 0.00 0.00 0.00 0.00 0.00 0.00 0.00 0.00 0.00 0.00 0.00 0.00 0.00 0.00 0.00 0.00 0.00